Observation data for Boys Ranch on 12/09/2019      Previous  Date       Current Mesonet Observations  Soil Data  Daily Summary Page  Observations in Plain Language
KBY1 090600Z 26011KT 11/03 A2973 RMK A01 T01130029  RH  056%=      5-min Rain = 0
KBY1 090601Z 26010KT 11/03 A2973 RMK A01 T01130029  RH  056%=      5-min Rain = 0
KBY1 090602Z 26011KT 11/03 A2973 RMK A01 T01130029  RH  056%=      5-min Rain = 0
KBY1 090603Z 26010KT 11/03 A2973 RMK A01 T01130029  RH  056%=      5-min Rain = 0
KBY1 090604Z 26012KT 11/03 A2973 RMK A01 T01130029  RH  056%=      5-min Rain = 0
KBY1 090605Z 26012KT 11/03 A2973 RMK A01 T01140029  RH  056%=      5-min Rain = 0
KBY1 090606Z 26010KT 11/03 A2973 RMK A01 T01140029  RH  056%=      5-min Rain = 0
KBY1 090607Z 26009KT 11/03 A2973 RMK A01 T01140029  RH  056%=      5-min Rain = 0
KBY1 090608Z 26011KT 12/03 A2973 RMK A01 T01150029  RH  056%=      5-min Rain = 0
KBY1 090609Z 26010KT 12/03 A2973 RMK A01 T01150029  RH  056%=      5-min Rain = 0
KBY1 090610Z 26011KT 12/03 A2973 RMK A01 T01150029  RH  056%=      5-min Rain = 0
KBY1 090611Z 26011KT 12/03 A2973 RMK A01 T01160030  RH  055%=      5-min Rain = 0
KBY1 090612Z 25012KT 12/03 A2973 RMK A01 T01160030  RH  055%=      5-min Rain = 0
KBY1 090613Z 26012KT 12/03 A2973 RMK A01 T01160029  RH  055%=      5-min Rain = 0
KBY1 090614Z 26011KT 12/03 A2973 RMK A01 T01170029  RH  055%=      5-min Rain = 0
KBY1 090615Z 26013KT 12/03 A2973 RMK A01 T01170030  RH  055%=      5-min Rain = 0
KBY1 090616Z 26013KT 12/03 A2973 RMK A01 T01170030  RH  055%=      5-min Rain = 0
KBY1 090617Z 26013KT 12/03 A2973 RMK A01 T01180030  RH  055%=      5-min Rain = 0
KBY1 090618Z 26013KT 12/03 A2973 RMK A01 T01180029  RH  054%=      5-min Rain = 0
KBY1 090619Z 26012KT 12/03 A2973 RMK A01 T01190030  RH  054%=      5-min Rain = 0
KBY1 090620Z 25011KT 12/03 A2973 RMK A01 T01190030  RH  054%=      5-min Rain = 0
KBY1 090621Z 26011KT 12/03 A2973 RMK A01 T01180030  RH  055%=      5-min Rain = 0
KBY1 090622Z 26013KT 12/03 A2973 RMK A01 T01180030  RH  055%=      5-min Rain = 0
KBY1 090623Z 26012KT 12/03 A2973 RMK A01 T01180030  RH  055%=      5-min Rain = 0
KBY1 090624Z 26012KT 12/03 A2973 RMK A01 T01170030  RH  055%=      5-min Rain = 0
KBY1 090625Z 26013KT 12/03 A2973 RMK A01 T01180030  RH  055%=      5-min Rain = 0
KBY1 090626Z 26012KT 12/03 A2973 RMK A01 T01180030  RH  055%=      5-min Rain = 0
KBY1 090627Z 25012KT 12/03 A2973 RMK A01 T01180030  RH  055%=      5-min Rain = 0
KBY1 090628Z 26013KT 12/03 A2973 RMK A01 T01180030  RH  055%=      5-min Rain = 0
KBY1 090629Z 25013KT 12/03 A2973 RMK A01 T01180030  RH  055%=      5-min Rain = 0
KBY1 090630Z 26011KT 12/03 A2973 RMK A01 T01190030  RH  055%=      5-min Rain = 0
KBY1 090631Z 26012KT 12/03 A2973 RMK A01 T01180030  RH  055%=      5-min Rain = 0
KBY1 090632Z 26011KT 12/03 A2973 RMK A01 T01180030  RH  055%=      5-min Rain = 0
KBY1 090633Z 26012KT 12/03 A2973 RMK A01 T01180030  RH  055%=      5-min Rain = 0
KBY1 090634Z 26011KT 12/03 A2973 RMK A01 T01180030  RH  055%=      5-min Rain = 0
KBY1 090635Z 26012KT 12/03 A2973 RMK A01 T01180030  RH  055%=      5-min Rain = 0
KBY1 090636Z 26011G16KT 12/03 A2973 RMK A01 T01180030  RH  055%=      5-min Rain = 0
KBY1 090637Z 26015KT 12/03 A2973 RMK A01 T01180030  RH  055%=      5-min Rain = 0
KBY1 090638Z 26013KT 12/03 A2974 RMK A01 T01190029  RH  054%=      5-min Rain = 0
KBY1 090639Z 26012KT 12/03 A2974 RMK A01 T01190030  RH  054%=      5-min Rain = 0
KBY1 090640Z 26011G16KT 12/03 A2973 RMK A01 T01190030  RH  054%=      5-min Rain = 0
KBY1 090641Z 26012KT 12/03 A2974 RMK A01 T01190030  RH  054%=      5-min Rain = 0
KBY1 090642Z 27011KT 12/03 A2974 RMK A01 T01180030  RH  055%=      5-min Rain = 0
KBY1 090643Z 26014KT 12/03 A2974 RMK A01 T01180030  RH  055%=      5-min Rain = 0
KBY1 090644Z 26011KT 12/03 A2974 RMK A01 T01180030  RH  055%=      5-min Rain = 0
KBY1 090645Z 26011G16KT 12/03 A2974 RMK A01 T01180030  RH  055%=      5-min Rain = 0
KBY1 090646Z 26012KT 12/03 A2974 RMK A01 T01180030  RH  055%=      5-min Rain = 0
KBY1 090647Z 26011KT 12/03 A2974 RMK A01 T01180030  RH  055%=      5-min Rain = 0
KBY1 090648Z 26012KT 12/03 A2974 RMK A01 T01180030  RH  055%=      5-min Rain = 0
KBY1 090649Z 26012KT 12/03 A2974 RMK A01 T01180030  RH  055%=      5-min Rain = 0
KBY1 090650Z 27012KT 12/03 A2974 RMK A01 T01180030  RH  055%=      5-min Rain = 0
KBY1 090651Z 26011KT 12/03 A2974 RMK A01 T01180030  RH  055%=      5-min Rain = 0
KBY1 090652Z 26012KT 12/03 A2974 RMK A01 T01180030  RH  055%=      5-min Rain = 0
KBY1 090653Z 26012G18KT 12/03 A2974 RMK A01 T01180029  RH  055%=      5-min Rain = 0
KBY1 090654Z 26010KT 12/03 A2974 RMK A01 T01180029  RH  054%=      5-min Rain = 0
KBY1 090655Z 26009KT 12/03 A2974 RMK A01 T01180029  RH  055%=      5-min Rain = 0
KBY1 090656Z 26011KT 12/03 A2974 RMK A01 T01180029  RH  055%=      5-min Rain = 0
KBY1 090657Z 26011KT 12/03 A2974 RMK A01 T01180030  RH  055%=      5-min Rain = 0
KBY1 090658Z 26012KT 12/03 A2974 RMK A01 T01170030  RH  055%=      5-min Rain = 0
KBY1 090659Z 26012G17KT 12/03 A2974 RMK A01 T01180029  RH  055%=      5-min Rain = 0
KBY1 090700Z 26010KT 12/03 A2974 RMK A01 T01190029  RH  054%=      5-min Rain = 0
KBY1 090701Z 26014G19KT 12/03 A2974 RMK A01 T01190029  RH  054%=      5-min Rain = 0
KBY1 090702Z 26013KT 12/03 A2974 RMK A01 T01200029  RH  054%=      5-min Rain = 0
KBY1 090703Z 27013KT 12/03 A2974 RMK A01 T01200029  RH  054%=      5-min Rain = 0
KBY1 090704Z 27011KT 12/03 A2974 RMK A01 T01200029  RH  054%=      5-min Rain = 0
KBY1 090705Z 26012KT 12/03 A2974 RMK A01 T01200029  RH  054%=      5-min Rain = 0
KBY1 090706Z 26013KT 12/03 A2974 RMK A01 T01190029  RH  054%=      5-min Rain = 0
KBY1 090707Z 26012KT 12/03 A2974 RMK A01 T01190028  RH  054%=      5-min Rain = 0
KBY1 090708Z 26014KT 12/03 A2974 RMK A01 T01200028  RH  054%=      5-min Rain = 0
KBY1 090709Z 26014KT 12/03 A2974 RMK A01 T01210028  RH  053%=      5-min Rain = 0
KBY1 090710Z 26011KT 12/03 A2974 RMK A01 T01210029  RH  053%=      5-min Rain = 0
KBY1 090711Z 26012KT 12/03 A2973 RMK A01 T01210028  RH  053%=      5-min Rain = 0
KBY1 090712Z 26012KT 12/03 A2973 RMK A01 T01210028  RH  053%=      5-min Rain = 0
KBY1 090713Z 27012G17KT 12/03 A2973 RMK A01 T01200028  RH  053%=      5-min Rain = 0
KBY1 090714Z 26012KT 12/03 A2973 RMK A01 T01200028  RH  053%=      5-min Rain = 0
KBY1 090715Z 26011KT 12/03 A2973 RMK A01 T01200028  RH  053%=      5-min Rain = 0
KBY1 090716Z 27011KT 12/03 A2973 RMK A01 T01200028  RH  053%=      5-min Rain = 0
KBY1 090717Z 26011G16KT 12/03 A2973 RMK A01 T01190028  RH  054%=      5-min Rain = 0
KBY1 090718Z 27011KT 12/03 A2973 RMK A01 T01190028  RH  054%=      5-min Rain = 0
KBY1 090719Z 26013KT 12/03 A2973 RMK A01 T01190028  RH  054%=      5-min Rain = 0
KBY1 090720Z 26013KT 12/03 A2973 RMK A01 T01190028  RH  054%=      5-min Rain = 0
KBY1 090721Z 27012KT 12/03 A2973 RMK A01 T01190028  RH  054%=      5-min Rain = 0
KBY1 090722Z 26011KT 12/03 A2973 RMK A01 T01190028  RH  054%=      5-min Rain = 0
KBY1 090723Z 27011KT 12/03 A2974 RMK A01 T01190028  RH  054%=      5-min Rain = 0
KBY1 090724Z 26011KT 12/03 A2974 RMK A01 T01180028  RH  054%=      5-min Rain = 0
KBY1 090725Z 26009KT 12/03 A2974 RMK A01 T01170028  RH  054%=      5-min Rain = 0
KBY1 090726Z 27011KT 12/03 A2974 RMK A01 T01170028  RH  054%=      5-min Rain = 0
KBY1 090727Z 27011KT 12/03 A2974 RMK A01 T01170028  RH  054%=      5-min Rain = 0
KBY1 090728Z 26009KT 12/03 A2974 RMK A01 T01170028  RH  054%=      5-min Rain = 0
KBY1 090729Z 27011KT 12/03 A2974 RMK A01 T01160028  RH  055%=      5-min Rain = 0
KBY1 090730Z 26009KT 12/03 A2974 RMK A01 T01160028  RH  055%=      5-min Rain = 0
KBY1 090731Z 26010KT 12/03 A2974 RMK A01 T01160028  RH  055%=      5-min Rain = 0
KBY1 090732Z 26011KT 12/03 A2974 RMK A01 T01160028  RH  055%=      5-min Rain = 0
KBY1 090733Z 26011KT 12/03 A2974 RMK A01 T01160028  RH  054%=      5-min Rain = 0
KBY1 090734Z 26010KT 12/03 A2974 RMK A01 T01160027  RH  054%=      5-min Rain = 0
KBY1 090735Z 26011KT 12/03 A2974 RMK A01 T01160027  RH  054%=      5-min Rain = 0
KBY1 090736Z 26011KT 12/03 A2974 RMK A01 T01160028  RH  055%=      5-min Rain = 0
KBY1 090737Z 26009KT 12/03 A2974 RMK A01 T01160027  RH  055%=      5-min Rain = 0
KBY1 090738Z 26008KT 12/03 A2974 RMK A01 T01160028  RH  055%=      5-min Rain = 0
KBY1 090739Z 26011KT 12/03 A2974 RMK A01 T01150028  RH  055%=      5-min Rain = 0
KBY1 090740Z 26011KT 12/03 A2974 RMK A01 T01150027  RH  055%=      5-min Rain = 0
KBY1 090741Z 26009KT 12/03 A2974 RMK A01 T01150027  RH  055%=      5-min Rain = 0
KBY1 090742Z 26009KT 12/03 A2974 RMK A01 T01150027  RH  055%=      5-min Rain = 0
KBY1 090743Z 27009KT 12/03 A2974 RMK A01 T01150027  RH  055%=      5-min Rain = 0
KBY1 090744Z 26010KT 12/03 A2974 RMK A01 T01150028  RH  055%=      5-min Rain = 0
KBY1 090745Z 26008KT 12/03 A2974 RMK A01 T01150027  RH  055%=      5-min Rain = 0
KBY1 090746Z 26009KT 11/03 A2974 RMK A01 T01140027  RH  055%=      5-min Rain = 0
KBY1 090747Z 26010KT 11/03 A2974 RMK A01 T01140027  RH  055%=      5-min Rain = 0
KBY1 090748Z 26010KT 11/03 A2974 RMK A01 T01140027  RH  055%=      5-min Rain = 0
KBY1 090749Z 26009KT 11/03 A2974 RMK A01 T01140027  RH  055%=      5-min Rain = 0
KBY1 090750Z 26010KT 11/03 A2974 RMK A01 T01140027  RH  055%=      5-min Rain = 0
KBY1 090751Z 26008KT 11/03 A2974 RMK A01 T01140027  RH  055%=      5-min Rain = 0
KBY1 090752Z 26009KT 11/03 A2974 RMK A01 T01140027  RH  055%=      5-min Rain = 0
KBY1 090753Z 26008KT 11/03 A2974 RMK A01 T01130027  RH  055%=      5-min Rain = 0
KBY1 090754Z 26008KT 11/03 A2974 RMK A01 T01130027  RH  055%=      5-min Rain = 0
KBY1 090755Z 26009KT 11/03 A2974 RMK A01 T01130027  RH  056%=      5-min Rain = 0
KBY1 090756Z 26008KT 11/03 A2974 RMK A01 T01120027  RH  056%=      5-min Rain = 0
KBY1 090757Z 27007KT 11/03 A2974 RMK A01 T01120027  RH  056%=      5-min Rain = 0
KBY1 090758Z 26006KT 11/03 A2975 RMK A01 T01110027  RH  056%=      5-min Rain = 0
KBY1 090759Z 27008KT 11/03 A2975 RMK A01 T01110027  RH  056%=      5-min Rain = 0
KBY1 090800Z 27007KT 11/03 A2975 RMK A01 T01100027  RH  056%=      5-min Rain = 0
KBY1 090801Z 27008KT 11/03 A2975 RMK A01 T01100027  RH  056%=      5-min Rain = 0
KBY1 090802Z 27007KT 11/03 A2975 RMK A01 T01100027  RH  056%=      5-min Rain = 0
KBY1 090803Z 27007KT 11/03 A2975 RMK A01 T01100027  RH  057%=      5-min Rain = 0
KBY1 090804Z 27006KT 11/03 A2975 RMK A01 T01100027  RH  057%=      5-min Rain = 0
KBY1 090805Z 26006KT 11/03 A2975 RMK A01 T01090027  RH  057%=      5-min Rain = 0
KBY1 090806Z 26006KT 11/03 A2975 RMK A01 T01090027  RH  057%=      5-min Rain = 0
KBY1 090807Z 27005KT 11/03 A2975 RMK A01 T01090027  RH  057%=      5-min Rain = 0
KBY1 090808Z 27006KT 11/03 A2975 RMK A01 T01080027  RH  057%=      5-min Rain = 0
KBY1 090809Z 26007KT 11/03 A2975 RMK A01 T01070027  RH  058%=      5-min Rain = 0
KBY1 090810Z 27006KT 11/03 A2975 RMK A01 T01070027  RH  058%=      5-min Rain = 0
KBY1 090811Z 27007KT 11/03 A2975 RMK A01 T01070027  RH  058%=      5-min Rain = 0
KBY1 090812Z 26008KT 11/03 A2975 RMK A01 T01070027  RH  058%=      5-min Rain = 0
KBY1 090813Z 27007KT 11/03 A2975 RMK A01 T01070027  RH  058%=      5-min Rain = 0
KBY1 090814Z 27007KT 11/03 A2975 RMK A01 T01070027  RH  058%=      5-min Rain = 0
KBY1 090815Z 27006KT 11/03 A2975 RMK A01 T01070027  RH  058%=      5-min Rain = 0
KBY1 090816Z 28005KT 11/03 A2976 RMK A01 T01070027  RH  058%=      5-min Rain = 0
KBY1 090817Z 30005KT 11/03 A2976 RMK A01 T01060027  RH  058%=      5-min Rain = 0
KBY1 090818Z 30005KT 11/03 A2976 RMK A01 T01060027  RH  058%=      5-min Rain = 0
KBY1 090819Z 29005KT 11/03 A2976 RMK A01 T01060027  RH  058%=      5-min Rain = 0
KBY1 090820Z 29005KT 11/03 A2976 RMK A01 T01060028  RH  058%=      5-min Rain = 0
KBY1 090821Z 30005KT 11/03 A2976 RMK A01 T01050027  RH  059%=      5-min Rain = 0
KBY1 090822Z 30004KT 10/03 A2975 RMK A01 T01040027  RH  059%=      5-min Rain = 0
KBY1 090823Z 30005KT 10/03 A2975 RMK A01 T01040027  RH  059%=      5-min Rain = 0
KBY1 090824Z 30004KT 10/03 A2975 RMK A01 T01030028  RH  060%=      5-min Rain = 0
KBY1 090825Z 30004KT 10/03 A2975 RMK A01 T01020028  RH  060%=      5-min Rain = 0
KBY1 090826Z 29003KT 10/03 A2976 RMK A01 T01010027  RH  060%=      5-min Rain = 0
KBY1 090827Z 30004KT 10/03 A2976 RMK A01 T01000027  RH  060%=      5-min Rain = 0
KBY1 090828Z 28003KT 10/03 A2976 RMK A01 T01000027  RH  061%=      5-min Rain = 0
KBY1 090829Z 29002KT 10/03 A2976 RMK A01 T00990027  RH  061%=      5-min Rain = 0
KBY1 090830Z 29002KT 10/03 A2976 RMK A01 T00980027  RH  061%=      5-min Rain = 0
KBY1 090831Z 29003KT 10/03 A2976 RMK A01 T00980027  RH  062%=      5-min Rain = 0
KBY1 090832Z 29004KT 10/03 A2976 RMK A01 T00970027  RH  062%=      5-min Rain = 0
KBY1 090833Z 29003KT 10/03 A2976 RMK A01 T00970028  RH  062%=      5-min Rain = 0
KBY1 090834Z 28003KT 10/03 A2976 RMK A01 T00970028  RH  062%=      5-min Rain = 0
KBY1 090835Z 27003KT 10/03 A2976 RMK A01 T00960027  RH  062%=      5-min Rain = 0
KBY1 090836Z 27003KT 10/03 A2976 RMK A01 T00960028  RH  063%=      5-min Rain = 0
KBY1 090837Z 27005KT 10/03 A2976 RMK A01 T00950028  RH  063%=      5-min Rain = 0
KBY1 090838Z 26005KT 10/03 A2976 RMK A01 T00950027  RH  063%=      5-min Rain = 0
KBY1 090839Z 25005KT 09/03 A2976 RMK A01 T00930027  RH  063%=      5-min Rain = 0
KBY1 090840Z 26005KT 09/03 A2975 RMK A01 T00910027  RH  064%=      5-min Rain = 0
KBY1 090841Z 26006KT 09/03 A2975 RMK A01 T00910027  RH  065%=      5-min Rain = 0
KBY1 090842Z 25006KT 09/03 A2975 RMK A01 T00910028  RH  065%=      5-min Rain = 0
KBY1 090843Z 26006KT 09/03 A2975 RMK A01 T00920029  RH  065%=      5-min Rain = 0
KBY1 090844Z 26006KT 09/03 A2975 RMK A01 T00930029  RH  064%=      5-min Rain = 0
KBY1 090845Z 25006KT 09/03 A2975 RMK A01 T00930029  RH  064%=      5-min Rain = 0
KBY1 090846Z 26005KT 09/03 A2975 RMK A01 T00940029  RH  064%=      5-min Rain = 0
KBY1 090847Z 27005KT 09/03 A2975 RMK A01 T00940028  RH  064%=      5-min Rain = 0
KBY1 090848Z 27005KT 09/03 A2975 RMK A01 T00940029  RH  064%=      5-min Rain = 0
KBY1 090849Z 29005KT 09/03 A2975 RMK A01 T00940028  RH  063%=      5-min Rain = 0
KBY1 090850Z 30006KT 09/03 A2976 RMK A01 T00940028  RH  063%=      5-min Rain = 0
KBY1 090851Z 31005KT 09/03 A2976 RMK A01 T00940028  RH  063%=      5-min Rain = 0
KBY1 090852Z 31005KT 09/03 A2976 RMK A01 T00930028  RH  064%=      5-min Rain = 0
KBY1 090853Z 31005KT 09/03 A2976 RMK A01 T00920028  RH  064%=      5-min Rain = 0
KBY1 090854Z 31006KT 09/03 A2976 RMK A01 T00900028  RH  065%=      5-min Rain = 0
KBY1 090855Z 32005KT 09/03 A2976 RMK A01 T00890028  RH  065%=      5-min Rain = 0
KBY1 090856Z 32005KT 09/03 A2976 RMK A01 T00880028  RH  066%=      5-min Rain = 0
KBY1 090857Z 31006KT 09/03 A2976 RMK A01 T00880028  RH  066%=      5-min Rain = 0
KBY1 090858Z 30005KT 09/03 A2976 RMK A01 T00870028  RH  067%=      5-min Rain = 0
KBY1 090859Z 30005KT 09/03 A2976 RMK A01 T00870029  RH  067%=      5-min Rain = 0
KBY1 090900Z 29004KT 09/03 A2976 RMK A01 T00870029  RH  067%=      5-min Rain = 0
KBY1 090901Z 29005KT 09/03 A2976 RMK A01 T00870029  RH  067%=      5-min Rain = 0
KBY1 090902Z 29006KT 09/03 A2976 RMK A01 T00870029  RH  067%=      5-min Rain = 0
KBY1 090903Z 29005KT 09/03 A2976 RMK A01 T00880029  RH  067%=      5-min Rain = 0
KBY1 090904Z 28005KT 09/03 A2976 RMK A01 T00880029  RH  066%=      5-min Rain = 0
KBY1 090905Z 27005KT 09/03 A2975 RMK A01 T00880029  RH  066%=      5-min Rain = 0
KBY1 090906Z 27007KT 09/03 A2975 RMK A01 T00890029  RH  066%=      5-min Rain = 0
KBY1 090907Z 27008KT 09/03 A2975 RMK A01 T00890029  RH  066%=      5-min Rain = 0
KBY1 090908Z 27007KT 09/03 A2975 RMK A01 T00900029  RH  066%=      5-min Rain = 0
KBY1 090909Z 27008KT 09/03 A2975 RMK A01 T00900029  RH  065%=      5-min Rain = 0
KBY1 090910Z 27008KT 09/03 A2975 RMK A01 T00910029  RH  065%=      5-min Rain = 0
KBY1 090911Z 27007KT 09/03 A2975 RMK A01 T00920029  RH  065%=      5-min Rain = 0
KBY1 090912Z 27008KT 09/03 A2975 RMK A01 T00920029  RH  065%=      5-min Rain = 0
KBY1 090913Z 28007KT 09/03 A2975 RMK A01 T00920029  RH  064%=      5-min Rain = 0
KBY1 090914Z 27006KT 09/03 A2975 RMK A01 T00930029  RH  064%=      5-min Rain = 0
KBY1 090915Z 29005KT 09/03 A2976 RMK A01 T00930029  RH  064%=      5-min Rain = 0
KBY1 090916Z 29006KT 09/03 A2976 RMK A01 T00930029  RH  064%=      5-min Rain = 0
KBY1 090917Z 29005KT 09/03 A2976 RMK A01 T00940029  RH  064%=      5-min Rain = 0
KBY1 090918Z 29003KT 09/03 A2976 RMK A01 T00940029  RH  064%=      5-min Rain = 0
KBY1 090919Z 29005KT 10/03 A2976 RMK A01 T00950029  RH  064%=      5-min Rain = 0
KBY1 090920Z 29005KT 10/03 A2976 RMK A01 T00950029  RH  064%=      5-min Rain = 0
KBY1 090921Z 28004KT 09/03 A2976 RMK A01 T00940029  RH  064%=      5-min Rain = 0
KBY1 090922Z 27006KT 09/03 A2976 RMK A01 T00940029  RH  064%=      5-min Rain = 0
KBY1 090923Z 27006KT 09/03 A2976 RMK A01 T00940029  RH  064%=      5-min Rain = 0
KBY1 090924Z 27005KT 09/03 A2976 RMK A01 T00940029  RH  064%=      5-min Rain = 0
KBY1 090925Z 28005KT 09/03 A2976 RMK A01 T00940029  RH  064%=      5-min Rain = 0
KBY1 090926Z 27004KT 09/03 A2976 RMK A01 T00940029  RH  064%=      5-min Rain = 0
KBY1 090927Z 28003KT 09/03 A2976 RMK A01 T00940029  RH  064%=      5-min Rain = 0
KBY1 090928Z 29004KT 09/03 A2976 RMK A01 T00930029  RH  064%=      5-min Rain = 0
KBY1 090929Z 29005KT 09/03 A2976 RMK A01 T00930029  RH  064%=      5-min Rain = 0
KBY1 090930Z 29006KT 09/03 A2976 RMK A01 T00920029  RH  064%=      5-min Rain = 0
KBY1 090931Z 29004KT 09/03 A2976 RMK A01 T00920029  RH  065%=      5-min Rain = 0
KBY1 090932Z 29005KT 09/03 A2977 RMK A01 T00920028  RH  065%=      5-min Rain = 0
KBY1 090933Z 29004KT 09/03 A2977 RMK A01 T00910029  RH  065%=      5-min Rain = 0
KBY1 090934Z 28004KT 09/03 A2977 RMK A01 T00910028  RH  065%=      5-min Rain = 0
KBY1 090935Z 28003KT 09/03 A2977 RMK A01 T00910029  RH  065%=      5-min Rain = 0
KBY1 090936Z 28004KT 09/03 A2977 RMK A01 T00890028  RH  066%=      5-min Rain = 0
KBY1 090937Z 27003KT 09/03 A2977 RMK A01 T00890029  RH  066%=      5-min Rain = 0
KBY1 090938Z 28004KT 09/03 A2976 RMK A01 T00880028  RH  066%=      5-min Rain = 0
KBY1 090939Z 27004KT 09/03 A2976 RMK A01 T00870028  RH  067%=      5-min Rain = 0
KBY1 090940Z 28004KT 09/03 A2976 RMK A01 T00860028  RH  067%=      5-min Rain = 0
KBY1 090941Z 27004KT 09/03 A2976 RMK A01 T00860028  RH  067%=      5-min Rain = 0
KBY1 090942Z 27005KT 09/03 A2976 RMK A01 T00860028  RH  067%=      5-min Rain = 0
KBY1 090943Z 28006KT 09/03 A2976 RMK A01 T00860028  RH  067%=      5-min Rain = 0
KBY1 090944Z 27004KT 09/03 A2976 RMK A01 T00860029  RH  067%=      5-min Rain = 0
KBY1 090945Z 28004KT 09/03 A2976 RMK A01 T00860028  RH  067%=      5-min Rain = 0
KBY1 090946Z 28005KT 09/03 A2976 RMK A01 T00860028  RH  067%=      5-min Rain = 0
KBY1 090947Z 27005KT 09/03 A2976 RMK A01 T00870028  RH  067%=      5-min Rain = 0
KBY1 090948Z 27006KT 09/03 A2976 RMK A01 T00870028  RH  067%=      5-min Rain = 0
KBY1 090949Z 28005KT 09/03 A2976 RMK A01 T00870028  RH  066%=      5-min Rain = 0
KBY1 090950Z 29004KT 09/03 A2976 RMK A01 T00880028  RH  066%=      5-min Rain = 0
KBY1 090951Z 29003KT 09/03 A2976 RMK A01 T00870028  RH  066%=      5-min Rain = 0
KBY1 090952Z 28004KT 09/03 A2976 RMK A01 T00870028  RH  066%=      5-min Rain = 0
KBY1 090953Z 30004KT 09/03 A2976 RMK A01 T00880029  RH  066%=      5-min Rain = 0
KBY1 090954Z 29005KT 09/03 A2976 RMK A01 T00870028  RH  066%=      5-min Rain = 0
KBY1 090955Z 30004KT 09/03 A2976 RMK A01 T00880028  RH  066%=      5-min Rain = 0
KBY1 090956Z 30004KT 09/03 A2976 RMK A01 T00870029  RH  067%=      5-min Rain = 0
KBY1 090957Z 30004KT 09/03 A2976 RMK A01 T00870029  RH  067%=      5-min Rain = 0
KBY1 090958Z 30004KT 09/03 A2976 RMK A01 T00870029  RH  067%=      5-min Rain = 0
KBY1 090959Z 30004KT 09/03 A2976 RMK A01 T00870029  RH  067%=      5-min Rain = 0
KBY1 091000Z 28004KT 09/03 A2976 RMK A01 T00870029  RH  067%=      5-min Rain = 0
KBY1 091001Z 28004KT 09/03 A2976 RMK A01 T00860029  RH  067%=      5-min Rain = 0
KBY1 091002Z 27004KT 09/03 A2976 RMK A01 T00870029  RH  067%=      5-min Rain = 0
KBY1 091003Z 29003KT 09/03 A2976 RMK A01 T00870028  RH  067%=      5-min Rain = 0
KBY1 091004Z 30006KT 09/03 A2976 RMK A01 T00880029  RH  067%=      5-min Rain = 0
KBY1 091005Z 30005KT 09/03 A2976 RMK A01 T00880029  RH  066%=      5-min Rain = 0
KBY1 091006Z 31006KT 09/03 A2976 RMK A01 T00890029  RH  066%=      5-min Rain = 0
KBY1 091007Z 31006KT 09/03 A2976 RMK A01 T00890029  RH  066%=      5-min Rain = 0
KBY1 091008Z 32006KT 09/03 A2977 RMK A01 T00890029  RH  066%=      5-min Rain = 0
KBY1 091009Z 32006KT 09/03 A2977 RMK A01 T00880029  RH  066%=      5-min Rain = 0
KBY1 091010Z 32005KT 09/03 A2977 RMK A01 T00870029  RH  067%=      5-min Rain = 0
KBY1 091011Z 31003KT 09/03 A2977 RMK A01 T00870029  RH  067%=      5-min Rain = 0
KBY1 091012Z 31003KT 09/03 A2977 RMK A01 T00860029  RH  067%=      5-min Rain = 0
KBY1 091013Z 30003KT 09/03 A2977 RMK A01 T00850029  RH  068%=      5-min Rain = 0
KBY1 091014Z 29003KT 09/03 A2977 RMK A01 T00850029  RH  068%=      5-min Rain = 0
KBY1 091015Z 28004KT 09/03 A2977 RMK A01 T00850029  RH  068%=      5-min Rain = 0
KBY1 091016Z 29004KT 09/03 A2977 RMK A01 T00860029  RH  068%=      5-min Rain = 0
KBY1 091017Z 28004KT 09/03 A2977 RMK A01 T00870029  RH  067%=      5-min Rain = 0
KBY1 091018Z 28004KT 09/03 A2977 RMK A01 T00880029  RH  066%=      5-min Rain = 0
KBY1 091019Z 29005KT 09/03 A2977 RMK A01 T00890029  RH  066%=      5-min Rain = 0
KBY1 091020Z 29004KT 09/03 A2977 RMK A01 T00900029  RH  066%=      5-min Rain = 0
KBY1 091021Z 29004KT 09/03 A2977 RMK A01 T00910029  RH  065%=      5-min Rain = 0
KBY1 091022Z 30005KT 09/03 A2977 RMK A01 T00910029  RH  065%=      5-min Rain = 0
KBY1 091023Z 30006KT 09/03 A2977 RMK A01 T00920029  RH  065%=      5-min Rain = 0
KBY1 091024Z 30006KT 09/03 A2977 RMK A01 T00930030  RH  065%=      5-min Rain = 0
KBY1 091025Z 29005KT 09/03 A2977 RMK A01 T00930029  RH  065%=      5-min Rain = 0
KBY1 091026Z 29006KT 09/03 A2977 RMK A01 T00930029  RH  064%=      5-min Rain = 0
KBY1 091027Z 30005KT 09/03 A2977 RMK A01 T00940030  RH  064%=      5-min Rain = 0
KBY1 091028Z 29005KT 09/03 A2977 RMK A01 T00940029  RH  064%=      5-min Rain = 0
KBY1 091029Z 29005KT 09/03 A2977 RMK A01 T00940029  RH  064%=      5-min Rain = 0
KBY1 091030Z 29006KT 09/03 A2977 RMK A01 T00940029  RH  064%=      5-min Rain = 0
KBY1 091031Z 29006KT 09/03 A2977 RMK A01 T00940029  RH  064%=      5-min Rain = 0
KBY1 091032Z 28006KT 09/03 A2977 RMK A01 T00940029  RH  064%=      5-min Rain = 0
KBY1 091033Z 28005KT 09/03 A2977 RMK A01 T00940029  RH  064%=      5-min Rain = 0
KBY1 091034Z 28004KT 09/03 A2977 RMK A01 T00940029  RH  064%=      5-min Rain = 0
KBY1 091035Z 27005KT 09/03 A2977 RMK A01 T00940029  RH  064%=      5-min Rain = 0
KBY1 091036Z 28005KT 09/03 A2977 RMK A01 T00930029  RH  064%=      5-min Rain = 0
KBY1 091037Z 28003KT 09/03 A2977 RMK A01 T00920029  RH  065%=      5-min Rain = 0
KBY1 091038Z 28005KT 09/03 A2977 RMK A01 T00920029  RH  065%=      5-min Rain = 0
KBY1 091039Z 28005KT 09/03 A2977 RMK A01 T00920029  RH  065%=      5-min Rain = 0
KBY1 091040Z 28004KT 09/03 A2977 RMK A01 T00910029  RH  065%=      5-min Rain = 0
KBY1 091041Z 28004KT 09/03 A2977 RMK A01 T00910029  RH  065%=      5-min Rain = 0
KBY1 091042Z 28003KT 09/03 A2977 RMK A01 T00920029  RH  065%=      5-min Rain = 0
KBY1 091043Z 28003KT 09/03 A2977 RMK A01 T00910029  RH  065%=      5-min Rain = 0
KBY1 091044Z 28004KT 09/03 A2977 RMK A01 T00920030  RH  065%=      5-min Rain = 0
KBY1 091045Z 29006KT 09/03 A2977 RMK A01 T00920029  RH  065%=      5-min Rain = 0
KBY1 091046Z 28005KT 09/03 A2977 RMK A01 T00920029  RH  065%=      5-min Rain = 0
KBY1 091047Z 28005KT 09/03 A2977 RMK A01 T00930029  RH  064%=      5-min Rain = 0
KBY1 091048Z 27005KT 09/03 A2977 RMK A01 T00930029  RH  064%=      5-min Rain = 0
KBY1 091049Z 27006KT 09/03 A2977 RMK A01 T00930029  RH  064%=      5-min Rain = 0
KBY1 091050Z 27006KT 09/03 A2977 RMK A01 T00930029  RH  064%=      5-min Rain = 0
KBY1 091051Z 27005KT 09/03 A2978 RMK A01 T00940029  RH  064%=      5-min Rain = 0
KBY1 091052Z 27006KT 09/03 A2978 RMK A01 T00940029  RH  064%=      5-min Rain = 0
KBY1 091053Z 27005KT 10/03 A2978 RMK A01 T00950029  RH  064%=      5-min Rain = 0
KBY1 091054Z 27006KT 10/03 A2977 RMK A01 T00950029  RH  063%=      5-min Rain = 0
KBY1 091055Z 27005KT 10/03 A2977 RMK A01 T00950029  RH  063%=      5-min Rain = 0
KBY1 091056Z 28004KT 10/03 A2978 RMK A01 T00950029  RH  063%=      5-min Rain = 0
KBY1 091057Z 28005KT 10/03 A2978 RMK A01 T00950029  RH  063%=      5-min Rain = 0
KBY1 091058Z 29006KT 10/03 A2978 RMK A01 T00950029  RH  063%=      5-min Rain = 0
KBY1 091059Z 29005KT 10/03 A2978 RMK A01 T00960029  RH  063%=      5-min Rain = 0
KBY1 091100Z 29005KT 10/03 A2978 RMK A01 T00960029  RH  063%=      5-min Rain = 0
KBY1 091101Z 29006KT 10/03 A2978 RMK A01 T00960029  RH  063%=      5-min Rain = 0
KBY1 091102Z 29004KT 10/03 A2978 RMK A01 T00960029  RH  063%=      5-min Rain = 0
KBY1 091103Z 29004KT 10/03 A2978 RMK A01 T00950029  RH  063%=      5-min Rain = 0
KBY1 091104Z 29004KT 10/03 A2978 RMK A01 T00950029  RH  063%=      5-min Rain = 0
KBY1 091105Z 29005KT 10/03 A2978 RMK A01 T00950029  RH  063%=      5-min Rain = 0
KBY1 091106Z 30003KT 10/03 A2978 RMK A01 T00950029  RH  063%=      5-min Rain = 0
KBY1 091107Z 31004KT 10/03 A2978 RMK A01 T00950029  RH  063%=      5-min Rain = 0
KBY1 091108Z 31004KT 10/03 A2978 RMK A01 T00950029  RH  064%=      5-min Rain = 0
KBY1 091109Z 31003KT 09/03 A2978 RMK A01 T00940029  RH  064%=      5-min Rain = 0
KBY1 091110Z 32003KT 09/03 A2978 RMK A01 T00940029  RH  064%=      5-min Rain = 0
KBY1 091111Z 32002KT 09/03 A2978 RMK A01 T00940029  RH  064%=      5-min Rain = 0
KBY1 091112Z 32003KT 09/03 A2978 RMK A01 T00930029  RH  064%=      5-min Rain = 0
KBY1 091113Z 31004KT 09/03 A2978 RMK A01 T00930029  RH  064%=      5-min Rain = 0
KBY1 091114Z 31003KT 09/03 A2978 RMK A01 T00930029  RH  064%=      5-min Rain = 0
KBY1 091115Z 31004KT 09/03 A2978 RMK A01 T00930029  RH  064%=      5-min Rain = 0
KBY1 091116Z 31004KT 09/03 A2978 RMK A01 T00930029  RH  064%=      5-min Rain = 0
KBY1 091117Z 31004KT 09/03 A2978 RMK A01 T00930030  RH  064%=      5-min Rain = 0
KBY1 091118Z 31003KT 09/03 A2978 RMK A01 T00930029  RH  064%=      5-min Rain = 0
KBY1 091119Z 31003KT 09/03 A2978 RMK A01 T00930029  RH  064%=      5-min Rain = 0
KBY1 091120Z 31003KT 09/03 A2978 RMK A01 T00930030  RH  065%=      5-min Rain = 0
KBY1 091121Z 31003KT 09/03 A2978 RMK A01 T00930030  RH  065%=      5-min Rain = 0
KBY1 091122Z 31003KT 09/03 A2978 RMK A01 T00930030  RH  064%=      5-min Rain = 0
KBY1 091123Z 31003KT 09/03 A2979 RMK A01 T00930029  RH  064%=      5-min Rain = 0
KBY1 091124Z 31003KT 09/03 A2979 RMK A01 T00930029  RH  065%=      5-min Rain = 0
KBY1 091125Z 32003KT 09/03 A2979 RMK A01 T00930029  RH  065%=      5-min Rain = 0
KBY1 091126Z 31003KT 09/03 A2979 RMK A01 T00930030  RH  065%=      5-min Rain = 0
KBY1 091127Z 32002KT 09/03 A2979 RMK A01 T00920030  RH  065%=      5-min Rain = 0
KBY1 091128Z 33002KT 09/03 A2979 RMK A01 T00920030  RH  065%=      5-min Rain = 0
KBY1 091129Z 33001KT 09/03 A2979 RMK A01 T00920030  RH  065%=      5-min Rain = 0
KBY1 091130Z 34001KT 09/03 A2979 RMK A01 T00920030  RH  065%=      5-min Rain = 0
KBY1 091131Z 34002KT 09/03 A2979 RMK A01 T00920030  RH  065%=      5-min Rain = 0
KBY1 091132Z 34003KT 09/03 A2979 RMK A01 T00910030  RH  065%=      5-min Rain = 0
KBY1 091133Z 34002KT 09/03 A298 RMK A01 T00910029  RH  065%=      5-min Rain = 0
KBY1 091134Z 35003KT 09/03 A298 RMK A01 T00900029  RH  066%=      5-min Rain = 0
KBY1 091135Z 34003KT 09/03 A298 RMK A01 T00890029  RH  066%=      5-min Rain = 0
KBY1 091136Z 33002KT 09/03 A298 RMK A01 T00890029  RH  066%=      5-min Rain = 0
KBY1 091137Z 32003KT 09/03 A298 RMK A01 T00890029  RH  066%=      5-min Rain = 0
KBY1 091138Z 32002KT 09/03 A2979 RMK A01 T00890029  RH  066%=      5-min Rain = 0
KBY1 091139Z 32004KT 09/03 A2979 RMK A01 T00890029  RH  066%=      5-min Rain = 0
KBY1 091140Z 32003KT 09/03 A2979 RMK A01 T00900029  RH  066%=      5-min Rain = 0
KBY1 091141Z 30004KT 09/03 A2979 RMK A01 T00900029  RH  066%=      5-min Rain = 0
KBY1 091142Z 31003KT 09/03 A2979 RMK A01 T00900029  RH  066%=      5-min Rain = 0
KBY1 091143Z 29003KT 09/03 A2979 RMK A01 T00900029  RH  066%=      5-min Rain = 0
KBY1 091144Z 30004KT 09/03 A2979 RMK A01 T00910029  RH  065%=      5-min Rain = 0
KBY1 091145Z 29004KT 09/03 A2979 RMK A01 T00910029  RH  065%=      5-min Rain = 0
KBY1 091146Z 29003KT 09/03 A2979 RMK A01 T00920029  RH  065%=      5-min Rain = 0
KBY1 091147Z 28004KT 09/03 A2979 RMK A01 T00920029  RH  065%=      5-min Rain = 0
KBY1 091148Z 27004KT 09/03 A2979 RMK A01 T00930029  RH  064%=      5-min Rain = 0
KBY1 091149Z 26003KT 09/03 A298 RMK A01 T00930029  RH  064%=      5-min Rain = 0
KBY1 091150Z 27003KT 09/03 A298 RMK A01 T00930029  RH  064%=      5-min Rain = 0
KBY1 091151Z 27003KT 09/03 A298 RMK A01 T00920029  RH  065%=      5-min Rain = 0
KBY1 091152Z 26003KT 09/03 A298 RMK A01 T00920030  RH  065%=      5-min Rain = 0
KBY1 091153Z 26004KT 09/03 A298 RMK A01 T00920030  RH  065%=      5-min Rain = 0
KBY1 091154Z 26004KT 09/03 A298 RMK A01 T00910030  RH  065%=      5-min Rain = 0
KBY1 091155Z 27004KT 09/03 A298 RMK A01 T00910030  RH  066%=      5-min Rain = 0
KBY1 091156Z 30002KT 09/03 A298 RMK A01 T00900029  RH  066%=      5-min Rain = 0
KBY1 091157Z 32002KT 09/03 A298 RMK A01 T00900030  RH  066%=      5-min Rain = 0
KBY1 091158Z 31003KT 09/03 A298 RMK A01 T00900030  RH  066%=      5-min Rain = 0
KBY1 091159Z 31003KT 09/03 A2981 RMK A01 T00890029  RH  066%=      5-min Rain = 0
KBY1 091200Z 31004KT 09/03 A2981 RMK A01 T00880029  RH  066%=      5-min Rain = 0
KBY1 091201Z 31003KT 09/03 A2981 RMK A01 T00880029  RH  067%=      5-min Rain = 0
KBY1 091202Z 31002KT 09/03 A2981 RMK A01 T00870029  RH  067%=      5-min Rain = 0
KBY1 091203Z 30002KT 09/03 A2981 RMK A01 T00870029  RH  067%=      5-min Rain = 0
KBY1 091204Z 30002KT 09/03 A2981 RMK A01 T00870029  RH  067%=      5-min Rain = 0
KBY1 091205Z 31003KT 09/03 A2981 RMK A01 T00870029  RH  067%=      5-min Rain = 0
KBY1 091206Z 32003KT 09/03 A2982 RMK A01 T00870030  RH  067%=      5-min Rain = 0
KBY1 091207Z 35004KT 09/03 A2982 RMK A01 T00860029  RH  067%=      5-min Rain = 0
KBY1 091208Z 35005KT 09/03 A2982 RMK A01 T00860029  RH  067%=      5-min Rain = 0
KBY1 091209Z 00005KT 09/03 A2982 RMK A01 T00860028  RH  067%=      5-min Rain = 0
KBY1 091210Z 00006KT 09/03 A2983 RMK A01 T00850027  RH  067%=      5-min Rain = 0
KBY1 091211Z 00007KT 09/03 A2983 RMK A01 T00850027  RH  067%=      5-min Rain = 0
KBY1 091212Z 36005KT 09/03 A2983 RMK A01 T00860027  RH  066%=      5-min Rain = 0
KBY1 091213Z 36007KT 09/03 A2982 RMK A01 T00870026  RH  066%=      5-min Rain = 0
KBY1 091214Z 35009KT 09/03 A2983 RMK A01 T00880026  RH  065%=      5-min Rain = 0
KBY1 091215Z 35006KT 09/03 A2983 RMK A01 T00890025  RH  064%=      5-min Rain = 0
KBY1 091216Z 36007KT 09/03 A2983 RMK A01 T00900025  RH  064%=      5-min Rain = 0
KBY1 091217Z 35006KT 09/03 A2983 RMK A01 T00900025  RH  064%=      5-min Rain = 0
KBY1 091218Z 35005KT 09/03 A2983 RMK A01 T00910025  RH  063%=      5-min Rain = 0
KBY1 091219Z 35005KT 09/03 A2983 RMK A01 T00910025  RH  063%=      5-min Rain = 0
KBY1 091220Z 00006KT 09/03 A2983 RMK A01 T00910025  RH  063%=      5-min Rain = 0
KBY1 091221Z 36004KT 09/03 A2983 RMK A01 T00900025  RH  064%=      5-min Rain = 0
KBY1 091222Z 35004KT 09/03 A2983 RMK A01 T00890025  RH  064%=      5-min Rain = 0
KBY1 091223Z 35004KT 09/03 A2983 RMK A01 T00890025  RH  064%=      5-min Rain = 0
KBY1 091224Z 34005KT 09/03 A2983 RMK A01 T00890025  RH  064%=      5-min Rain = 0
KBY1 091225Z 33005KT 09/03 A2983 RMK A01 T00880025  RH  064%=      5-min Rain = 0
KBY1 091226Z 34005KT 09/03 A2983 RMK A01 T00880025  RH  064%=      5-min Rain = 0
KBY1 091227Z 34007KT 09/02 A2983 RMK A01 T00870024  RH  064%=      5-min Rain = 0
KBY1 091228Z 33005KT 09/02 A2983 RMK A01 T00880024  RH  064%=      5-min Rain = 0
KBY1 091229Z 34007KT 09/02 A2983 RMK A01 T00880023  RH  064%=      5-min Rain = 0
KBY1 091230Z 35008KT 09/02 A2983 RMK A01 T00880023  RH  064%=      5-min Rain = 0
KBY1 091231Z 34007KT 09/02 A2983 RMK A01 T00890023  RH  063%=      5-min Rain = 0
KBY1 091232Z 34007KT 09/02 A2984 RMK A01 T00900022  RH  063%=      5-min Rain = 0
KBY1 091233Z 35009KT 09/02 A2984 RMK A01 T00900022  RH  062%=      5-min Rain = 0
KBY1 091234Z 35008KT 09/02 A2984 RMK A01 T00910020  RH  061%=      5-min Rain = 0
KBY1 091235Z 36006KT 09/02 A2984 RMK A01 T00920019  RH  061%=      5-min Rain = 0
KBY1 091236Z 36007KT 09/02 A2984 RMK A01 T00910019  RH  060%=      5-min Rain = 0
KBY1 091237Z 00007KT 09/02 A2984 RMK A01 T00910018  RH  060%=      5-min Rain = 0
KBY1 091238Z 00007KT 09/02 A2984 RMK A01 T00910017  RH  060%=      5-min Rain = 0
KBY1 091239Z 01006KT 09/02 A2984 RMK A01 T00910016  RH  059%=      5-min Rain = 0
KBY1 091240Z 01009KT 09/01 A2984 RMK A01 T00910014  RH  059%=      5-min Rain = 0
KBY1 091241Z 01008KT 09/01 A2984 RMK A01 T00920011  RH  057%=      5-min Rain = 0
KBY1 091242Z 01008KT 09/01 A2984 RMK A01 T00930008  RH  055%=      5-min Rain = 0
KBY1 091243Z 01008KT 09/01 A2984 RMK A01 T00940007  RH  055%=      5-min Rain = 0
KBY1 091244Z 01008KT 09/01 A2984 RMK A01 T00940005  RH  054%=      5-min Rain = 0
KBY1 091245Z 01008KT 09/00 A2985 RMK A01 T00940003  RH  053%=      5-min Rain = 0
KBY1 091246Z 02009KT 09/00 A2985 RMK A01 T00940002  RH  053%=      5-min Rain = 0
KBY1 091247Z 02008KT 10/00 A2985 RMK A01 T00950001  RH  052%=      5-min Rain = 0
KBY1 091248Z 02008KT 09/00 A2985 RMK A01 T00940000  RH  052%=      5-min Rain = 0
KBY1 091249Z 02007KT 09/00 A2985 RMK A01 T009400-0  RH  052%=      5-min Rain = 0
KBY1 091250Z 01006KT 09/M00 A2985 RMK A01 T00941001  RH  052%=      5-min Rain = 0
KBY1 091251Z 02007KT 09/M00 A2985 RMK A01 T00931002  RH  051%=      5-min Rain = 0
KBY1 091252Z 02007KT 09/M00 A2985 RMK A01 T00931003  RH  051%=      5-min Rain = 0
KBY1 091253Z 02008KT 09/M00 A2985 RMK A01 T00921003  RH  051%=      5-min Rain = 0
KBY1 091254Z 02007KT 09/M00 A2985 RMK A01 T00921004  RH  051%=      5-min Rain = 0
KBY1 091255Z 02007KT 09/M01 A2985 RMK A01 T00921005  RH  051%=      5-min Rain = 0
KBY1 091256Z 02008KT 09/M01 A2985 RMK A01 T00921006  RH  051%=      5-min Rain = 0
KBY1 091257Z 02010KT 09/M01 A2985 RMK A01 T00921007  RH  050%=      5-min Rain = 0
KBY1 091258Z 02010KT 09/M01 A2985 RMK A01 T00921008  RH  050%=      5-min Rain = 0
KBY1 091259Z 03009KT 09/M01 A2985 RMK A01 T00921009  RH  049%=      5-min Rain = 0
KBY1 091300Z 02009KT 09/M01 A2985 RMK A01 T00911011  RH  049%=      5-min Rain = 0
KBY1 091301Z 03008G13KT 09/M01 A2985 RMK A01 T00911010  RH  049%=      5-min Rain = 0
KBY1 091302Z 03011KT 09/M01 A2985 RMK A01 T00911010  RH  049%=      5-min Rain = 0
KBY1 091303Z 02010KT 09/M01 A2985 RMK A01 T00911012  RH  049%=      5-min Rain = 0
KBY1 091304Z 03010KT 09/M01 A2985 RMK A01 T00911012  RH  048%=      5-min Rain = 0
KBY1 091305Z 03012KT 09/M01 A2986 RMK A01 T00911013  RH  048%=      5-min Rain = 0
KBY1 091306Z 02010G16KT 09/M02 A2986 RMK A01 T00911015  RH  048%=      5-min Rain = 0
KBY1 091307Z 03012KT 09/M02 A2986 RMK A01 T00911015  RH  048%=      5-min Rain = 0
KBY1 091308Z 03014KT 09/M02 A2986 RMK A01 T00911015  RH  047%=      5-min Rain = 0
KBY1 091309Z 03012KT 09/M02 A2986 RMK A01 T00921016  RH  047%=      5-min Rain = 0
KBY1 091310Z 03011KT 09/M02 A2986 RMK A01 T00911016  RH  047%=      5-min Rain = 0
KBY1 091311Z 02010KT 09/M02 A2986 RMK A01 T00911016  RH  047%=      5-min Rain = 0
KBY1 091312Z 03009KT 09/M02 A2987 RMK A01 T00921016  RH  047%=      5-min Rain = 0
KBY1 091313Z 03008KT 09/M02 A2987 RMK A01 T00911015  RH  047%=      5-min Rain = 0
KBY1 091314Z 02008KT 09/M02 A2987 RMK A01 T00901015  RH  048%=      5-min Rain = 0
KBY1 091315Z 03007KT 09/M02 A2987 RMK A01 T00901015  RH  048%=      5-min Rain = 0
KBY1 091316Z 02006KT 09/M02 A2987 RMK A01 T00891015  RH  048%=      5-min Rain = 0
KBY1 091317Z 02007KT 09/M02 A2987 RMK A01 T00881015  RH  048%=      5-min Rain = 0
KBY1 091318Z 02007KT 09/M01 A2987 RMK A01 T00881014  RH  049%=      5-min Rain = 0
KBY1 091319Z 02005KT 09/M02 A2987 RMK A01 T00871015  RH  049%=      5-min Rain = 0
KBY1 091320Z 02008KT 09/M02 A2987 RMK A01 T00871015  RH  049%=      5-min Rain = 0
KBY1 091321Z 02008KT 09/M02 A2987 RMK A01 T00871015  RH  049%=      5-min Rain = 0
KBY1 091322Z 02005KT 09/M02 A2987 RMK A01 T00881016  RH  048%=      5-min Rain = 0
KBY1 091323Z 03005KT 09/M02 A2987 RMK A01 T00881015  RH  049%=      5-min Rain = 0
KBY1 091324Z 02005KT 09/M02 A2987 RMK A01 T00871015  RH  049%=      5-min Rain = 0
KBY1 091325Z 02007KT 09/M02 A2987 RMK A01 T00871015  RH  049%=      5-min Rain = 0
KBY1 091326Z 02006KT 09/M02 A2987 RMK A01 T00871016  RH  049%=      5-min Rain = 0
KBY1 091327Z 02007KT 09/M02 A2988 RMK A01 T00871016  RH  049%=      5-min Rain = 0
KBY1 091328Z 03005KT 09/M02 A2988 RMK A01 T00871015  RH  049%=      5-min Rain = 0
KBY1 091329Z 02007KT 09/M02 A2988 RMK A01 T00861016  RH  049%=      5-min Rain = 0
KBY1 091330Z 02007KT 09/M02 A2988 RMK A01 T00861016  RH  049%=      5-min Rain = 0
KBY1 091331Z 02006KT 09/M02 A2988 RMK A01 T00861016  RH  049%=      5-min Rain = 0
KBY1 091332Z 02008KT 09/M02 A2988 RMK A01 T00861016  RH  049%=      5-min Rain = 0
KBY1 091333Z 02008KT 09/M02 A2988 RMK A01 T00861016  RH  049%=      5-min Rain = 0
KBY1 091334Z 02006KT 09/M02 A2988 RMK A01 T00861017  RH  049%=      5-min Rain = 0
KBY1 091335Z 01005KT 09/M02 A2988 RMK A01 T00861016  RH  049%=      5-min Rain = 0
KBY1 091336Z 01004KT 09/M02 A2988 RMK A01 T00851016  RH  049%=      5-min Rain = 0
KBY1 091337Z 01006KT 08/M02 A2988 RMK A01 T00841017  RH  049%=      5-min Rain = 0
KBY1 091338Z 01007KT 08/M02 A2988 RMK A01 T00841017  RH  049%=      5-min Rain = 0
KBY1 091339Z 01006KT 08/M02 A2988 RMK A01 T00841016  RH  049%=      5-min Rain = 0
KBY1 091340Z 01005KT 08/M02 A2988 RMK A01 T00841016  RH  049%=      5-min Rain = 0
KBY1 091341Z 01006KT 08/M02 A2988 RMK A01 T00831017  RH  049%=      5-min Rain = 0
KBY1 091342Z 00004KT 08/M02 A2988 RMK A01 T00831017  RH  049%=      5-min Rain = 0
KBY1 091343Z 00004KT 08/M02 A2989 RMK A01 T00831017  RH  050%=      5-min Rain = 0
KBY1 091344Z 01004KT 08/M02 A2989 RMK A01 T00821017  RH  050%=      5-min Rain = 0
KBY1 091345Z 36005KT 08/M02 A2989 RMK A01 T00811016  RH  050%=      5-min Rain = 0
KBY1 091346Z 34003KT 08/M02 A2989 RMK A01 T00821016  RH  050%=      5-min Rain = 0
KBY1 091347Z 36004KT 08/M02 A2989 RMK A01 T00811016  RH  050%=      5-min Rain = 0
KBY1 091348Z 35004KT 08/M02 A2989 RMK A01 T00811016  RH  050%=      5-min Rain = 0
KBY1 091349Z 34004KT 08/M02 A2989 RMK A01 T00801016  RH  050%=      5-min Rain = 0
KBY1 091350Z 33004KT 08/M02 A2989 RMK A01 T00801017  RH  050%=      5-min Rain = 0
KBY1 091351Z 34005KT 08/M02 A2989 RMK A01 T00801016  RH  051%=      5-min Rain = 0
KBY1 091352Z 35003KT 08/M02 A2989 RMK A01 T00801016  RH  051%=      5-min Rain = 0
KBY1 091353Z 34003KT 08/M02 A2989 RMK A01 T00801016  RH  051%=      5-min Rain = 0
KBY1 091354Z 34002KT 08/M02 A2989 RMK A01 T00791016  RH  051%=      5-min Rain = 0
KBY1 091355Z 00002KT 08/M02 A299 RMK A01 T00791016  RH  051%=      5-min Rain = 0
KBY1 091356Z 03001KT 08/M02 A299 RMK A01 T00791016  RH  051%=      5-min Rain = 0
KBY1 091357Z 04002KT 08/M02 A299 RMK A01 T00781017  RH  051%=      5-min Rain = 0
KBY1 091358Z 04002KT 08/M02 A299 RMK A01 T00781016  RH  051%=      5-min Rain = 0
KBY1 091359Z 04004KT 08/M02 A299 RMK A01 T00771016  RH  051%=      5-min Rain = 0
KBY1 091400Z 03006KT 08/M02 A299 RMK A01 T00771016  RH  052%=      5-min Rain = 0
KBY1 091401Z 06004KT 08/M02 A2991 RMK A01 T00781016  RH  051%=      5-min Rain = 0
KBY1 091402Z 04004KT 08/M02 A2991 RMK A01 T00781016  RH  051%=      5-min Rain = 0
KBY1 091403Z 07004KT 08/M02 A2991 RMK A01 T00781016  RH  051%=      5-min Rain = 0
KBY1 091404Z 05004KT 08/M02 A2991 RMK A01 T00791017  RH  051%=      5-min Rain = 0
KBY1 091405Z 03005KT 08/M02 A2991 RMK A01 T00791017  RH  051%=      5-min Rain = 0
KBY1 091406Z 03003KT 08/M02 A2991 RMK A01 T00791016  RH  051%=      5-min Rain = 0
KBY1 091407Z 05002KT 08/M02 A2991 RMK A01 T00781016  RH  052%=      5-min Rain = 0
KBY1 091408Z 00002KT 08/M02 A2991 RMK A01 T00771016  RH  052%=      5-min Rain = 0
KBY1 091409Z 34002KT 08/M02 A2991 RMK A01 T00771016  RH  052%=      5-min Rain = 0
KBY1 091410Z 03001KT 08/M02 A2991 RMK A01 T00781015  RH  052%=      5-min Rain = 0
KBY1 091411Z 03002KT 08/M02 A2991 RMK A01 T00771015  RH  052%=      5-min Rain = 0
KBY1 091412Z 04005KT 08/M02 A2992 RMK A01 T00771015  RH  052%=      5-min Rain = 0
KBY1 091413Z 04005KT 08/M02 A2992 RMK A01 T00761015  RH  052%=      5-min Rain = 0
KBY1 091414Z 02006KT 08/M02 A2992 RMK A01 T00761015  RH  052%=      5-min Rain = 0
KBY1 091415Z 03004KT 08/M02 A2992 RMK A01 T00771016  RH  052%=      5-min Rain = 0
KBY1 091416Z 02003KT 08/M02 A2992 RMK A01 T00771015  RH  052%=      5-min Rain = 0
KBY1 091417Z 04002KT 08/M02 A2992 RMK A01 T00771016  RH  052%=      5-min Rain = 0
KBY1 091418Z 01003KT 08/M02 A2992 RMK A01 T00771015  RH  052%=      5-min Rain = 0
KBY1 091419Z 00002KT 08/M02 A2992 RMK A01 T00771015  RH  052%=      5-min Rain = 0
KBY1 091420Z 04001KT 08/M02 A2992 RMK A01 T00771015  RH  052%=      5-min Rain = 0
KBY1 091421Z 14001KT 08/M02 A2992 RMK A01 T00771015  RH  052%=      5-min Rain = 0
KBY1 091422Z 16000KT 08/M02 A2993 RMK A01 T00771015  RH  052%=      5-min Rain = 0
KBY1 091423Z 34001KT 08/M02 A2993 RMK A01 T00771015  RH  052%=      5-min Rain = 0
KBY1 091424Z 36002KT 08/M02 A2993 RMK A01 T00771015  RH  052%=      5-min Rain = 0
KBY1 091425Z 00002KT 08/M02 A2993 RMK A01 T00761015  RH  052%=      5-min Rain = 0
KBY1 091426Z 00002KT 08/M02 A2993 RMK A01 T00761015  RH  053%=      5-min Rain = 0
KBY1 091427Z 02002KT 08/M02 A2994 RMK A01 T00751015  RH  053%=      5-min Rain = 0
KBY1 091428Z 05003KT 08/M01 A2994 RMK A01 T00761014  RH  053%=      5-min Rain = 0
KBY1 091429Z 05003KT 08/M02 A2994 RMK A01 T00751015  RH  053%=      5-min Rain = 0
KBY1 091430Z 02004KT 08/M01 A2994 RMK A01 T00751014  RH  053%=      5-min Rain = 0
KBY1 091431Z 03006KT 08/M01 A2994 RMK A01 T00751014  RH  053%=      5-min Rain = 0
KBY1 091432Z 03005KT 07/M01 A2994 RMK A01 T00741014  RH  053%=      5-min Rain = 0
KBY1 091433Z 36005KT 08/M01 A2994 RMK A01 T00751014  RH  054%=      5-min Rain = 0
KBY1 091434Z 00005KT 07/M01 A2994 RMK A01 T00741013  RH  054%=      5-min Rain = 0
KBY1 091435Z 02006KT 07/M01 A2994 RMK A01 T00741013  RH  054%=      5-min Rain = 0
KBY1 091436Z 02010KT 07/M01 A2994 RMK A01 T00741013  RH  054%=      5-min Rain = 0
KBY1 091437Z 02009KT 07/M01 A2994 RMK A01 T00741013  RH  054%=      5-min Rain = 0
KBY1 091438Z 02008KT 07/M01 A2994 RMK A01 T00731013  RH  054%=      5-min Rain = 0
KBY1 091439Z 01007KT 07/M01 A2994 RMK A01 T00731013  RH  054%=      5-min Rain = 0
KBY1 091440Z 02007KT 07/M01 A2994 RMK A01 T00731013  RH  054%=      5-min Rain = 0
KBY1 091441Z 02008KT 07/M01 A2994 RMK A01 T00721013  RH  054%=      5-min Rain = 0
KBY1 091442Z 03009KT 07/M01 A2994 RMK A01 T00731013  RH  054%=      5-min Rain = 0
KBY1 091443Z 02007KT 07/M01 A2994 RMK A01 T00721013  RH  055%=      5-min Rain = 0
KBY1 091444Z 01009KT 07/M01 A2994 RMK A01 T00721013  RH  055%=      5-min Rain = 0
KBY1 091445Z 02011KT 07/M01 A2994 RMK A01 T00721013  RH  055%=      5-min Rain = 0
KBY1 091446Z 03012KT 07/M01 A2994 RMK A01 T00721014  RH  055%=      5-min Rain = 0
KBY1 091447Z 02010KT 07/M01 A2994 RMK A01 T00711013  RH  055%=      5-min Rain = 0
KBY1 091448Z 02008KT 07/M01 A2994 RMK A01 T00711013  RH  055%=      5-min Rain = 0
KBY1 091449Z 02008KT 07/M01 A2994 RMK A01 T00711012  RH  055%=      5-min Rain = 0
KBY1 091450Z 03007KT 07/M01 A2994 RMK A01 T00711012  RH  056%=      5-min Rain = 0
KBY1 091451Z 03006KT 07/M01 A2995 RMK A01 T00701012  RH  056%=      5-min Rain = 0
KBY1 091452Z 04004KT 07/M01 A2995 RMK A01 T00701012  RH  056%=      5-min Rain = 0
KBY1 091453Z 04005KT 07/M01 A2995 RMK A01 T00701011  RH  056%=      5-min Rain = 0
KBY1 091454Z 06006KT 07/M01 A2995 RMK A01 T00701011  RH  056%=      5-min Rain = 0
KBY1 091455Z 05007KT 07/M01 A2995 RMK A01 T00701011  RH  056%=      5-min Rain = 0
KBY1 091456Z 05006KT 07/M01 A2995 RMK A01 T00691011  RH  057%=      5-min Rain = 0
KBY1 091457Z 04005KT 07/M01 A2995 RMK A01 T00691011  RH  057%=      5-min Rain = 0
KBY1 091458Z 06005KT 07/M01 A2996 RMK A01 T00691011  RH  057%=      5-min Rain = 0
KBY1 091459Z 04005KT 07/M01 A2996 RMK A01 T00691011  RH  057%=      5-min Rain = 0
KBY1 091500Z 04008KT 07/M01 A2996 RMK A01 T00691010  RH  057%=      5-min Rain = 0
KBY1 091501Z 04009KT 07/M01 A2996 RMK A01 T00681011  RH  057%=      5-min Rain = 0
KBY1 091502Z 03006KT 07/M01 A2996 RMK A01 T00681011  RH  057%=      5-min Rain = 0
KBY1 091503Z 03006KT 07/M01 A2996 RMK A01 T00681011  RH  057%=      5-min Rain = 0
KBY1 091504Z 03008KT 07/M01 A2996 RMK A01 T00681011  RH  057%=      5-min Rain = 0
KBY1 091505Z 02007KT 07/M01 A2996 RMK A01 T00671011  RH  057%=      5-min Rain = 0
KBY1 091506Z 04006KT 07/M01 A2996 RMK A01 T00671010  RH  058%=      5-min Rain = 0
KBY1 091507Z 04008KT 07/M01 A2996 RMK A01 T00661011  RH  058%=      5-min Rain = 0
KBY1 091508Z 04008KT 07/M01 A2996 RMK A01 T00661011  RH  058%=      5-min Rain = 0
KBY1 091509Z 04008KT 07/M01 A2997 RMK A01 T00651012  RH  058%=      5-min Rain = 0
KBY1 091510Z 04008KT 06/M01 A2997 RMK A01 T00641013  RH  058%=      5-min Rain = 0
KBY1 091511Z 03012KT 06/M01 A2997 RMK A01 T00631013  RH  058%=      5-min Rain = 0
KBY1 091512Z 05015G20KT 06/M02 A2997 RMK A01 T00621015  RH  058%=      5-min Rain = 0
KBY1 091513Z 04013KT 06/M02 A2997 RMK A01 T00611015  RH  058%=      5-min Rain = 0
KBY1 091514Z 04009KT 06/M01 A2997 RMK A01 T00601014  RH  059%=      5-min Rain = 0
KBY1 091515Z 03010KT 06/M02 A2997 RMK A01 T00601015  RH  059%=      5-min Rain = 0
KBY1 091516Z 03009KT 06/M01 A2997 RMK A01 T00591014  RH  059%=      5-min Rain = 0
KBY1 091517Z 05008KT 06/M01 A2997 RMK A01 T00591014  RH  059%=      5-min Rain = 0
KBY1 091518Z 05008KT 06/M01 A2997 RMK A01 T00601013  RH  060%=      5-min Rain = 0
KBY1 091519Z 06009KT 06/M01 A2997 RMK A01 T00601013  RH  059%=      5-min Rain = 0
KBY1 091520Z 05009KT 06/M01 A2997 RMK A01 T00591013  RH  060%=      5-min Rain = 0
KBY1 091521Z 05010KT 06/M01 A2997 RMK A01 T00591013  RH  060%=      5-min Rain = 0
KBY1 091522Z 05008KT 06/M01 A2997 RMK A01 T00591013  RH  060%=      5-min Rain = 0
KBY1 091523Z 06007KT 06/M01 A2997 RMK A01 T00591012  RH  060%=      5-min Rain = 0
KBY1 091524Z 04007KT 06/M01 A2997 RMK A01 T00591012  RH  060%=      5-min Rain = 0
KBY1 091525Z 06010KT 06/M01 A2997 RMK A01 T00591013  RH  060%=      5-min Rain = 0
KBY1 091526Z 05008KT 06/M01 A2997 RMK A01 T00591013  RH  060%=      5-min Rain = 0
KBY1 091527Z 04010KT 06/M01 A2997 RMK A01 T00591012  RH  060%=      5-min Rain = 0
KBY1 091528Z 05010G15KT 06/M01 A2997 RMK A01 T00581013  RH  060%=      5-min Rain = 0
KBY1 091529Z 04013KT 06/M01 A2997 RMK A01 T00581013  RH  060%=      5-min Rain = 0
KBY1 091530Z 05011KT 06/M01 A2997 RMK A01 T00571013  RH  060%=      5-min Rain = 0
KBY1 091531Z 06014KT 06/M01 A2998 RMK A01 T00571013  RH  061%=      5-min Rain = 0
KBY1 091532Z 06014KT 06/M01 A2997 RMK A01 T00571013  RH  061%=      5-min Rain = 0
KBY1 091533Z 06013KT 06/M01 A2997 RMK A01 T00571013  RH  061%=      5-min Rain = 0
KBY1 091534Z 05014KT 06/M01 A2997 RMK A01 T00571012  RH  061%=      5-min Rain = 0
KBY1 091535Z 05011KT 06/M01 A2997 RMK A01 T00561013  RH  061%=      5-min Rain = 0
KBY1 091536Z 04011KT 06/M01 A2997 RMK A01 T00561013  RH  061%=      5-min Rain = 0
KBY1 091537Z 04012KT 06/M01 A2997 RMK A01 T00561013  RH  061%=      5-min Rain = 0
KBY1 091538Z 04009KT 06/M01 A2997 RMK A01 T00561014  RH  061%=      5-min Rain = 0
KBY1 091539Z 04010KT 06/M01 A2997 RMK A01 T00561013  RH  061%=      5-min Rain = 0
KBY1 091540Z 06012KT 06/M01 A2997 RMK A01 T00561013  RH  061%=      5-min Rain = 0
KBY1 091541Z 05011KT 06/M01 A2997 RMK A01 T00561013  RH  061%=      5-min Rain = 0
KBY1 091542Z 05010KT 06/M01 A2997 RMK A01 T00561013  RH  061%=      5-min Rain = 0
KBY1 091543Z 05010KT 06/M01 A2997 RMK A01 T00571013  RH  061%=      5-min Rain = 0
KBY1 091544Z 05011KT 06/M01 A2997 RMK A01 T00571013  RH  061%=      5-min Rain = 0
KBY1 091545Z 04013KT 06/M01 A2998 RMK A01 T00561013  RH  061%=      5-min Rain = 0
KBY1 091546Z 03011KT 06/M01 A2998 RMK A01 T00561014  RH  061%=      5-min Rain = 0
KBY1 091547Z 04008KT 06/M01 A2998 RMK A01 T00551014  RH  061%=      5-min Rain = 0
KBY1 091548Z 06010KT 06/M01 A2998 RMK A01 T00551014  RH  061%=      5-min Rain = 0
KBY1 091549Z 07007KT 06/M01 A2998 RMK A01 T00551014  RH  061%=      5-min Rain = 0
KBY1 091550Z 06005KT 06/M01 A2998 RMK A01 T00551013  RH  062%=      5-min Rain = 0
KBY1 091551Z 06009KT 06/M01 A2998 RMK A01 T00551013  RH  062%=      5-min Rain = 0
KBY1 091552Z 06005KT 06/M01 A2999 RMK A01 T00551013  RH  061%=      5-min Rain = 0
KBY1 091553Z 05006KT 06/M01 A2999 RMK A01 T00561013  RH  061%=      5-min Rain = 0
KBY1 091554Z 06008KT 06/M01 A2999 RMK A01 T00551014  RH  061%=      5-min Rain = 0
KBY1 091555Z 05010KT 06/M01 A2999 RMK A01 T00551014  RH  061%=      5-min Rain = 0
KBY1 091556Z 06009KT 05/M01 A2999 RMK A01 T00541014  RH  061%=      5-min Rain = 0
KBY1 091557Z 06009KT 05/M01 A30 RMK A01 T00541014  RH  062%=      5-min Rain = 0
KBY1 091558Z 06008KT 05/M01 A30 RMK A01 T00541014  RH  062%=      5-min Rain = 0
KBY1 091559Z 04007KT 05/M01 A30 RMK A01 T00541014  RH  062%=      5-min Rain = 0
KBY1 091600Z 04006KT 05/M01 A30 RMK A01 T00541014  RH  062%=      5-min Rain = 0
KBY1 091601Z 05008KT 05/M01 A30 RMK A01 T00541014  RH  061%=      5-min Rain = 0
KBY1 091602Z 04006KT 05/M01 A30 RMK A01 T00541014  RH  062%=      5-min Rain = 0
KBY1 091603Z 05006KT 05/M01 A30 RMK A01 T00541013  RH  062%=      5-min Rain = 0
KBY1 091604Z 05007KT 06/M01 A30 RMK A01 T00551012  RH  062%=      5-min Rain = 0
KBY1 091605Z 06008KT 06/M01 A30 RMK A01 T00551013  RH  061%=      5-min Rain = 0
KBY1 091606Z 06007KT 06/M01 A30 RMK A01 T00551012  RH  062%=      5-min Rain = 0
KBY1 091607Z 04007KT 06/M01 A3001 RMK A01 T00551013  RH  062%=      5-min Rain = 0
KBY1 091608Z 03009KT 06/M01 A3001 RMK A01 T00551014  RH  061%=      5-min Rain = 0
KBY1 091609Z 04011KT 05/M01 A3001 RMK A01 T00541014  RH  062%=      5-min Rain = 0
KBY1 091610Z 04011KT 05/M01 A3001 RMK A01 T00541014  RH  061%=      5-min Rain = 0
KBY1 091611Z 05011KT 05/M01 A3001 RMK A01 T00531014  RH  062%=      5-min Rain = 0
KBY1 091612Z 04011KT 05/M01 A3001 RMK A01 T00521014  RH  062%=      5-min Rain = 0
KBY1 091613Z 03012KT 05/M01 A3001 RMK A01 T00531014  RH  062%=      5-min Rain = 0
KBY1 091614Z 03015KT 05/M02 A3001 RMK A01 T00521016  RH  062%=      5-min Rain = 0
KBY1 091615Z 04015KT 05/M02 A3001 RMK A01 T00521017  RH  061%=      5-min Rain = 0
KBY1 091616Z 03013KT 05/M02 A3001 RMK A01 T00511017  RH  062%=      5-min Rain = 0
KBY1 091617Z 03015KT 05/M02 A3001 RMK A01 T00511016  RH  062%=      5-min Rain = 0
KBY1 091618Z 03014KT 05/M02 A3001 RMK A01 T00511017  RH  061%=      5-min Rain = 0
KBY1 091619Z 03011KT 05/M02 A3001 RMK A01 T00511016  RH  062%=      5-min Rain = 0
KBY1 091620Z 03010KT 05/M02 A3001 RMK A01 T00511017  RH  062%=      5-min Rain = 0
KBY1 091621Z 03011KT 05/M02 A3001 RMK A01 T00511017  RH  061%=      5-min Rain = 0
KBY1 091622Z 03010KT 05/M02 A3002 RMK A01 T00511017  RH  061%=      5-min Rain = 0
KBY1 091623Z 04012KT 05/M02 A3002 RMK A01 T00511017  RH  061%=      5-min Rain = 0
KBY1 091624Z 03011KT 05/M02 A3002 RMK A01 T00511017  RH  061%=      5-min Rain = 0
KBY1 091625Z 03009KT 05/M02 A3002 RMK A01 T00511017  RH  061%=      5-min Rain = 0
KBY1 091626Z 03010KT 05/M02 A3002 RMK A01 T00501018  RH  061%=      5-min Rain = 0
KBY1 091627Z 03010KT 05/M02 A3002 RMK A01 T00501017  RH  062%=      5-min Rain = 0
KBY1 091628Z 03010KT 05/M02 A3002 RMK A01 T00511017  RH  061%=      5-min Rain = 0
KBY1 091629Z 03009KT 05/M02 A3002 RMK A01 T00511017  RH  061%=      5-min Rain = 0
KBY1 091630Z 02008KT 05/M02 A3002 RMK A01 T00511017  RH  061%=      5-min Rain = 0
KBY1 091631Z 02009KT 05/M02 A3003 RMK A01 T00511017  RH  061%=      5-min Rain = 0
KBY1 091632Z 02009KT 05/M02 A3003 RMK A01 T00511017  RH  061%=      5-min Rain = 0
KBY1 091633Z 03010KT 05/M02 A3003 RMK A01 T00511018  RH  061%=      5-min Rain = 0
KBY1 091634Z 03011KT 05/M02 A3003 RMK A01 T00511018  RH  061%=      5-min Rain = 0
KBY1 091635Z 03009KT 05/M02 A3003 RMK A01 T00501018  RH  061%=      5-min Rain = 0
KBY1 091636Z 03009G14KT 05/M02 A3002 RMK A01 T00501018  RH  061%=      5-min Rain = 0
KBY1 091637Z 04012KT 05/M02 A3002 RMK A01 T00501018  RH  061%=      5-min Rain = 0
KBY1 091638Z 03012KT 05/M02 A3002 RMK A01 T00501018  RH  061%=      5-min Rain = 0
KBY1 091639Z 03012KT 05/M02 A3002 RMK A01 T00501018  RH  061%=      5-min Rain = 0
KBY1 091640Z 02011KT 05/M02 A3002 RMK A01 T00501018  RH  062%=      5-min Rain = 0
KBY1 091641Z 03011KT 05/M02 A3003 RMK A01 T00501018  RH  062%=      5-min Rain = 0
KBY1 091642Z 02009KT 05/M02 A3003 RMK A01 T00501018  RH  062%=      5-min Rain = 0
KBY1 091643Z 03009KT 05/M02 A3003 RMK A01 T00501017  RH  062%=      5-min Rain = 0
KBY1 091644Z 03010KT 05/M02 A3003 RMK A01 T00501017  RH  062%=      5-min Rain = 0
KBY1 091645Z 02008KT 05/M02 A3002 RMK A01 T00501018  RH  062%=      5-min Rain = 0
KBY1 091646Z 03009KT 05/M02 A3003 RMK A01 T00501017  RH  062%=      5-min Rain = 0
KBY1 091647Z 02008KT 05/M02 A3003 RMK A01 T00501017  RH  062%=      5-min Rain = 0
KBY1 091648Z 03008KT 05/M02 A3003 RMK A01 T00501016  RH  062%=      5-min Rain = 0
KBY1 091649Z 04010KT 05/M02 A3003 RMK A01 T00521015  RH  062%=      5-min Rain = 0
KBY1 091650Z 03009KT 05/M02 A3003 RMK A01 T00521016  RH  062%=      5-min Rain = 0
KBY1 091651Z 04010KT 05/M02 A3003 RMK A01 T00511017  RH  061%=      5-min Rain = 0
KBY1 091652Z 05011KT 05/M02 A3003 RMK A01 T00511017  RH  061%=      5-min Rain = 0
KBY1 091653Z 06011KT 05/M02 A3003 RMK A01 T00511019  RH  060%=      5-min Rain = 0
KBY1 091654Z 05012KT 05/M02 A3003 RMK A01 T00501021  RH  060%=      5-min Rain = 0
KBY1 091655Z 05010KT 05/M02 A3003 RMK A01 T00491021  RH  061%=      5-min Rain = 0
KBY1 091656Z 03010KT 05/M02 A3003 RMK A01 T00491020  RH  061%=      5-min Rain = 0
KBY1 091657Z 03010KT 05/M02 A3003 RMK A01 T00501020  RH  061%=      5-min Rain = 0
KBY1 091658Z 03011KT 05/M02 A3003 RMK A01 T00501020  RH  061%=      5-min Rain = 0
KBY1 091659Z 04011KT 05/M02 A3003 RMK A01 T00491020  RH  061%=      5-min Rain = 0
KBY1 091700Z 03012KT 05/M02 A3003 RMK A01 T00491021  RH  061%=      5-min Rain = 0
KBY1 091701Z 03011KT 05/M02 A3003 RMK A01 T00481020  RH  061%=      5-min Rain = 0
KBY1 091702Z 02012KT 05/M02 A3003 RMK A01 T00491020  RH  061%=      5-min Rain = 0
KBY1 091703Z 03013KT 05/M02 A3003 RMK A01 T00481020  RH  061%=      5-min Rain = 0
KBY1 091704Z 03010KT 05/M02 A3003 RMK A01 T00481020  RH  061%=      5-min Rain = 0
KBY1 091705Z 03011KT 05/M02 A3003 RMK A01 T00481019  RH  062%=      5-min Rain = 0
KBY1 091706Z 03010KT 05/M02 A3003 RMK A01 T00481020  RH  062%=      5-min Rain = 0
KBY1 091707Z 04013KT 05/M02 A3003 RMK A01 T00481019  RH  062%=      5-min Rain = 0
KBY1 091708Z 04013KT 05/M02 A3003 RMK A01 T00481020  RH  061%=      5-min Rain = 0
KBY1 091709Z 04010KT 05/M02 A3003 RMK A01 T00471021  RH  062%=      5-min Rain = 0
KBY1 091710Z 04008KT 05/M02 A3003 RMK A01 T00471020  RH  062%=      5-min Rain = 0
KBY1 091711Z 03010KT 05/M02 A3003 RMK A01 T00471019  RH  062%=      5-min Rain = 0
KBY1 091712Z 04011KT 05/M02 A3003 RMK A01 T00481019  RH  062%=      5-min Rain = 0
KBY1 091713Z 04011KT 05/M02 A3003 RMK A01 T00481020  RH  061%=      5-min Rain = 0
KBY1 091714Z 04010KT 05/M02 A3003 RMK A01 T00471021  RH  061%=      5-min Rain = 0
KBY1 091715Z 04011KT 05/M02 A3003 RMK A01 T00471020  RH  062%=      5-min Rain = 0
KBY1 091716Z 04009KT 05/M02 A3004 RMK A01 T00461021  RH  061%=      5-min Rain = 0
KBY1 091717Z 04009KT 05/M02 A3004 RMK A01 T00461021  RH  062%=      5-min Rain = 0
KBY1 091718Z 05007KT 05/M02 A3004 RMK A01 T00471019  RH  062%=      5-min Rain = 0
KBY1 091719Z 04008KT 05/M02 A3004 RMK A01 T00481019  RH  061%=      5-min Rain = 0
KBY1 091720Z 05007KT 05/M02 A3003 RMK A01 T00491018  RH  062%=      5-min Rain = 0
KBY1 091721Z 03009G14KT 05/M02 A3003 RMK A01 T00511018  RH  061%=      5-min Rain = 0
KBY1 091722Z 03012KT 05/M02 A3003 RMK A01 T00521020  RH  060%=      5-min Rain = 0
KBY1 091723Z 03010KT 05/M02 A3003 RMK A01 T00501021  RH  060%=      5-min Rain = 0
KBY1 091724Z 03012KT 05/M02 A3003 RMK A01 T00501020  RH  060%=      5-min Rain = 0
KBY1 091725Z 03013KT 05/M02 A3003 RMK A01 T00501021  RH  060%=      5-min Rain = 0
KBY1 091726Z 03011KT 05/M02 A3003 RMK A01 T00481023  RH  060%=      5-min Rain = 0
KBY1 091727Z 02010KT 05/M02 A3003 RMK A01 T00481022  RH  061%=      5-min Rain = 0
KBY1 091728Z 03010KT 05/M02 A3003 RMK A01 T00501019  RH  061%=      5-min Rain = 0
KBY1 091729Z 04010KT 05/M02 A3003 RMK A01 T00511020  RH  060%=      5-min Rain = 0
KBY1 091730Z 04010KT 05/M02 A3003 RMK A01 T00511021  RH  060%=      5-min Rain = 0
KBY1 091731Z 04010KT 05/M02 A3003 RMK A01 T00511020  RH  060%=      5-min Rain = 0
KBY1 091732Z 03010KT 05/M02 A3003 RMK A01 T00511021  RH  060%=      5-min Rain = 0
KBY1 091733Z 04006KT 05/M02 A3003 RMK A01 T00511020  RH  060%=      5-min Rain = 0
KBY1 091734Z 03005KT 05/M02 A3003 RMK A01 T00531018  RH  060%=      5-min Rain = 0
KBY1 091735Z 04010KT 05/M02 A3003 RMK A01 T00541017  RH  060%=      5-min Rain = 0
KBY1 091736Z 04009KT 05/M02 A3004 RMK A01 T00531021  RH  059%=      5-min Rain = 0
KBY1 091737Z 04006KT 05/M02 A3004 RMK A01 T00511021  RH  060%=      5-min Rain = 0
KBY1 091738Z 05007KT 05/M02 A3004 RMK A01 T00511019  RH  060%=      5-min Rain = 0
KBY1 091739Z 04007KT 05/M02 A3004 RMK A01 T00521020  RH  060%=      5-min Rain = 0
KBY1 091740Z 04010KT 05/M02 A3004 RMK A01 T00521020  RH  060%=      5-min Rain = 0
KBY1 091741Z 03009KT 05/M02 A3004 RMK A01 T00521020  RH  060%=      5-min Rain = 0
KBY1 091742Z 03010KT 05/M02 A3004 RMK A01 T00521020  RH  060%=      5-min Rain = 0
KBY1 091743Z 03008KT 05/M02 A3004 RMK A01 T00521020  RH  060%=      5-min Rain = 0
KBY1 091744Z 04008KT 05/M02 A3004 RMK A01 T00521020  RH  059%=      5-min Rain = 0
KBY1 091745Z 02006KT 05/M02 A3004 RMK A01 T00531019  RH  060%=      5-min Rain = 0
KBY1 091746Z 03006KT 06/M02 A3004 RMK A01 T00551017  RH  060%=      5-min Rain = 0
KBY1 091747Z 02007KT 06/M02 A3004 RMK A01 T00581016  RH  059%=      5-min Rain = 0
KBY1 091748Z 02008KT 06/M02 A3004 RMK A01 T00601015  RH  059%=      5-min Rain = 0
KBY1 091749Z 02009KT 06/M02 A3004 RMK A01 T00601019  RH  057%=      5-min Rain = 0
KBY1 091750Z 03009KT 06/M02 A3004 RMK A01 T00581019  RH  058%=      5-min Rain = 0
KBY1 091751Z 04009KT 06/M02 A3004 RMK A01 T00581018  RH  058%=      5-min Rain = 0
KBY1 091752Z 03009KT 06/M02 A3004 RMK A01 T00581019  RH  057%=      5-min Rain = 0
KBY1 091753Z 04008KT 06/M02 A3003 RMK A01 T00561021  RH  058%=      5-min Rain = 0
KBY1 091754Z 03007KT 06/M02 A3003 RMK A01 T00551021  RH  058%=      5-min Rain = 0
KBY1 091755Z 04008KT 06/M02 A3003 RMK A01 T00551019  RH  059%=      5-min Rain = 0
KBY1 091756Z 03010KT 06/M02 A3004 RMK A01 T00581017  RH  059%=      5-min Rain = 0
KBY1 091757Z 03008KT 06/M02 A3004 RMK A01 T00571021  RH  057%=      5-min Rain = 0
KBY1 091758Z 03008KT 06/M02 A3004 RMK A01 T00551022  RH  058%=      5-min Rain = 0
KBY1 091759Z 06008G13KT 05/M02 A3004 RMK A01 T00541021  RH  058%=      5-min Rain = 0
KBY1 091800Z 05010KT 05/M02 A3004 RMK A01 T00541020  RH  059%=      5-min Rain = 0
KBY1 091801Z 04008KT 06/M02 A3004 RMK A01 T00551020  RH  058%=      5-min Rain = 0
KBY1 091802Z 05009KT 06/M02 A3004 RMK A01 T00551021  RH  058%=      5-min Rain = 0
KBY1 091803Z 03008KT 05/M02 A3004 RMK A01 T00541021  RH  058%=      5-min Rain = 0
KBY1 091804Z 02009KT 06/M02 A3004 RMK A01 T00551020  RH  059%=      5-min Rain = 0
KBY1 091805Z 01006KT 06/M02 A3004 RMK A01 T00551021  RH  058%=      5-min Rain = 0
KBY1 091806Z 03006KT 06/M02 A3004 RMK A01 T00551020  RH  058%=      5-min Rain = 0
KBY1 091807Z 02005KT 06/M02 A3004 RMK A01 T00551020  RH  058%=      5-min Rain = 0
KBY1 091808Z 02006KT 06/M02 A3004 RMK A01 T00561019  RH  059%=      5-min Rain = 0
KBY1 091809Z 02009KT 06/M02 A3004 RMK A01 T00561020  RH  058%=      5-min Rain = 0
KBY1 091810Z 03009KT 06/M02 A3004 RMK A01 T00561021  RH  058%=      5-min Rain = 0
KBY1 091811Z 02011KT 06/M02 A3004 RMK A01 T00561020  RH  058%=      5-min Rain = 0
KBY1 091812Z 03009KT 06/M02 A3004 RMK A01 T00571019  RH  058%=      5-min Rain = 0
KBY1 091813Z 05010KT 06/M02 A3004 RMK A01 T00591020  RH  057%=      5-min Rain = 0
KBY1 091814Z 05009KT 06/M02 A3003 RMK A01 T00581021  RH  057%=      5-min Rain = 0
KBY1 091815Z 03009KT 06/M02 A3003 RMK A01 T00571021  RH  057%=      5-min Rain = 0
KBY1 091816Z 02008KT 06/M02 A3003 RMK A01 T00571020  RH  058%=      5-min Rain = 0
KBY1 091817Z 02008KT 06/M02 A3003 RMK A01 T00571020  RH  057%=      5-min Rain = 0
KBY1 091818Z 01009KT 06/M02 A3003 RMK A01 T00571021  RH  057%=      5-min Rain = 0
KBY1 091819Z 03008KT 06/M02 A3003 RMK A01 T00571021  RH  057%=      5-min Rain = 0
KBY1 091820Z 03008KT 06/M02 A3003 RMK A01 T00571020  RH  058%=      5-min Rain = 0
KBY1 091821Z 05008KT 06/M02 A3004 RMK A01 T00581020  RH  057%=      5-min Rain = 0
KBY1 091822Z 05007KT 06/M02 A3004 RMK A01 T00581020  RH  057%=      5-min Rain = 0
KBY1 091823Z 06009KT 06/M02 A3004 RMK A01 T00581020  RH  057%=      5-min Rain = 0
KBY1 091824Z 03009KT 06/M02 A3004 RMK A01 T00571022  RH  057%=      5-min Rain = 0
KBY1 091825Z 04007KT 06/M02 A3003 RMK A01 T00561023  RH  057%=      5-min Rain = 0
KBY1 091826Z 02005KT 06/M02 A3003 RMK A01 T00551022  RH  058%=      5-min Rain = 0
KBY1 091827Z 02006KT 06/M02 A3003 RMK A01 T00551022  RH  058%=      5-min Rain = 0
KBY1 091828Z 03010KT 06/M02 A3003 RMK A01 T00551021  RH  058%=      5-min Rain = 0
KBY1 091829Z 02011KT 06/M02 A3003 RMK A01 T00571021  RH  057%=      5-min Rain = 0
KBY1 091830Z 01010KT 06/M02 A3003 RMK A01 T00571022  RH  057%=      5-min Rain = 0
KBY1 091831Z 01010KT 06/M02 A3003 RMK A01 T00571023  RH  057%=      5-min Rain = 0
KBY1 091832Z 03011KT 06/M02 A3003 RMK A01 T00561022  RH  057%=      5-min Rain = 0
KBY1 091833Z 04011KT 06/M02 A3003 RMK A01 T00561023  RH  057%=      5-min Rain = 0
KBY1 091834Z 04009KT 06/M02 A3003 RMK A01 T00551023  RH  057%=      5-min Rain = 0
KBY1 091835Z 04009KT 06/M02 A3003 RMK A01 T00561023  RH  057%=      5-min Rain = 0
KBY1 091836Z 03009KT 06/M02 A3003 RMK A01 T00561022  RH  057%=      5-min Rain = 0
KBY1 091837Z 02008KT 06/M02 A3003 RMK A01 T00571021  RH  057%=      5-min Rain = 0
KBY1 091838Z 03009KT 06/M02 A3003 RMK A01 T00581023  RH  056%=      5-min Rain = 0
KBY1 091839Z 02008KT 06/M02 A3003 RMK A01 T00571023  RH  056%=      5-min Rain = 0
KBY1 091840Z 03008KT 06/M02 A3003 RMK A01 T00571023  RH  057%=      5-min Rain = 0
KBY1 091841Z 02010KT 06/M02 A3003 RMK A01 T00571023  RH  056%=      5-min Rain = 0
KBY1 091842Z 02012KT 06/M02 A3003 RMK A01 T00571022  RH  057%=      5-min Rain = 0
KBY1 091843Z 02008KT 06/M02 A3003 RMK A01 T00571023  RH  056%=      5-min Rain = 0
KBY1 091844Z 02009KT 06/M02 A3003 RMK A01 T00571023  RH  056%=      5-min Rain = 0
KBY1 091845Z 03008KT 06/M02 A3003 RMK A01 T00571023  RH  056%=      5-min Rain = 0
KBY1 091846Z 02009KT 06/M02 A3002 RMK A01 T00561024  RH  056%=      5-min Rain = 0
KBY1 091847Z 03011KT 06/M02 A3002 RMK A01 T00561023  RH  057%=      5-min Rain = 0
KBY1 091848Z 03011KT 06/M02 A3002 RMK A01 T00561024  RH  057%=      5-min Rain = 0
KBY1 091849Z 04009KT 06/M02 A3002 RMK A01 T00561024  RH  056%=      5-min Rain = 0
KBY1 091850Z 04012KT 06/M02 A3002 RMK A01 T00561024  RH  056%=      5-min Rain = 0
KBY1 091851Z 02011KT 06/M02 A3002 RMK A01 T00561024  RH  056%=      5-min Rain = 0
KBY1 091852Z 02010KT 06/M03 A3002 RMK A01 T00551025  RH  056%=      5-min Rain = 0
KBY1 091853Z 03010KT 05/M03 A3002 RMK A01 T00541025  RH  057%=      5-min Rain = 0
KBY1 091854Z 03009KT 05/M02 A3002 RMK A01 T00541023  RH  057%=      5-min Rain = 0
KBY1 091855Z 02009KT 06/M02 A3002 RMK A01 T00551023  RH  057%=      5-min Rain = 0
KBY1 091856Z 03008KT 06/M02 A3002 RMK A01 T00551024  RH  057%=      5-min Rain = 0
KBY1 091857Z 03008KT 06/M02 A3002 RMK A01 T00551024  RH  057%=      5-min Rain = 0
KBY1 091858Z 02009KT 06/M02 A3002 RMK A01 T00551023  RH  057%=      5-min Rain = 0
KBY1 091859Z 02010KT 06/M02 A3003 RMK A01 T00561023  RH  057%=      5-min Rain = 0
KBY1 091900Z 01010KT 06/M03 A3002 RMK A01 T00561025  RH  056%=      5-min Rain = 0
KBY1 091901Z 01007KT 06/M03 A3002 RMK A01 T00551025  RH  056%=      5-min Rain = 0
KBY1 091902Z 03007KT 05/M02 A3002 RMK A01 T00541024  RH  057%=      5-min Rain = 0
KBY1 091903Z 03010KT 06/M02 A3002 RMK A01 T00551024  RH  057%=      5-min Rain = 0
KBY1 091904Z 03009KT 06/M02 A3001 RMK A01 T00551024  RH  057%=      5-min Rain = 0
KBY1 091905Z 04008KT 06/M02 A3002 RMK A01 T00561024  RH  057%=      5-min Rain = 0
KBY1 091906Z 04007KT 06/M02 A3002 RMK A01 T00561023  RH  057%=      5-min Rain = 0
KBY1 091907Z 03008KT 06/M02 A3002 RMK A01 T00561023  RH  057%=      5-min Rain = 0
KBY1 091908Z 02007KT 06/M02 A3002 RMK A01 T00561024  RH  057%=      5-min Rain = 0
KBY1 091909Z 01009KT 06/M02 A3002 RMK A01 T00561024  RH  056%=      5-min Rain = 0
KBY1 091910Z 00010KT 06/M03 A3002 RMK A01 T00561025  RH  056%=      5-min Rain = 0
KBY1 091911Z 01011KT 06/M03 A3002 RMK A01 T00551025  RH  056%=      5-min Rain = 0
KBY1 091912Z 01010KT 06/M03 A3002 RMK A01 T00551026  RH  056%=      5-min Rain = 0
KBY1 091913Z 02008KT 05/M03 A3002 RMK A01 T00541026  RH  057%=      5-min Rain = 0
KBY1 091914Z 03009KT 05/M03 A3002 RMK A01 T00541025  RH  057%=      5-min Rain = 0
KBY1 091915Z 03009KT 05/M03 A3002 RMK A01 T00541025  RH  057%=      5-min Rain = 0
KBY1 091916Z 03007KT 05/M03 A3002 RMK A01 T00541025  RH  057%=      5-min Rain = 0
KBY1 091917Z 01007KT 06/M02 A3002 RMK A01 T00551023  RH  057%=      5-min Rain = 0
KBY1 091918Z 03008KT 06/M02 A3002 RMK A01 T00571023  RH  056%=      5-min Rain = 0
KBY1 091919Z 03010KT 06/M02 A3002 RMK A01 T00581024  RH  056%=      5-min Rain = 0
KBY1 091920Z 04012KT 06/M03 A3002 RMK A01 T00571027  RH  055%=      5-min Rain = 0
KBY1 091921Z 03012KT 06/M03 A3002 RMK A01 T00551027  RH  055%=      5-min Rain = 0
KBY1 091922Z 04011KT 06/M03 A3002 RMK A01 T00551027  RH  056%=      5-min Rain = 0
KBY1 091923Z 04009KT 05/M03 A3001 RMK A01 T00541028  RH  056%=      5-min Rain = 0
KBY1 091924Z 04010KT 05/M03 A3001 RMK A01 T00541027  RH  056%=      5-min Rain = 0
KBY1 091925Z 04010KT 05/M03 A3001 RMK A01 T00541027  RH  056%=      5-min Rain = 0
KBY1 091926Z 04008KT 05/M03 A3001 RMK A01 T00541027  RH  056%=      5-min Rain = 0
KBY1 091927Z 04010KT 05/M03 A3001 RMK A01 T00541027  RH  056%=      5-min Rain = 0
KBY1 091928Z 05010KT 05/M03 A3001 RMK A01 T00541027  RH  056%=      5-min Rain = 0
KBY1 091929Z 03010KT 06/M03 A3001 RMK A01 T00551026  RH  056%=      5-min Rain = 0
KBY1 091930Z 03011KT 06/M03 A3001 RMK A01 T00561027  RH  055%=      5-min Rain = 0
KBY1 091931Z 03009KT 06/M03 A3001 RMK A01 T00551029  RH  055%=      5-min Rain = 0
KBY1 091932Z 02010KT 05/M03 A3001 RMK A01 T00541029  RH  055%=      5-min Rain = 0
KBY1 091933Z 02013KT 06/M03 A3001 RMK A01 T00551030  RH  055%=      5-min Rain = 0
KBY1 091934Z 03012KT 05/M03 A3001 RMK A01 T00541031  RH  054%=      5-min Rain = 0
KBY1 091935Z 03008KT 05/M03 A3001 RMK A01 T00541031  RH  054%=      5-min Rain = 0
KBY1 091936Z 03006KT 05/M03 A3001 RMK A01 T00531030  RH  055%=      5-min Rain = 0
KBY1 091937Z 04005KT 06/M03 A3001 RMK A01 T00551027  RH  056%=      5-min Rain = 0
KBY1 091938Z 02006KT 06/M03 A3001 RMK A01 T00561027  RH  055%=      5-min Rain = 0
KBY1 091939Z 02008KT 06/M03 A3001 RMK A01 T00571029  RH  054%=      5-min Rain = 0
KBY1 091940Z 02009KT 06/M03 A3001 RMK A01 T00571030  RH  053%=      5-min Rain = 0
KBY1 091941Z 04009KT 06/M03 A3001 RMK A01 T00581031  RH  053%=      5-min Rain = 0
KBY1 091942Z 05006KT 06/M03 A3001 RMK A01 T00571033  RH  052%=      5-min Rain = 0
KBY1 091943Z 06006KT 06/M03 A3001 RMK A01 T00571032  RH  053%=      5-min Rain = 0
KBY1 091944Z 05007KT 06/M03 A3001 RMK A01 T00581033  RH  052%=      5-min Rain = 0
KBY1 091945Z 03005KT 06/M04 A3001 RMK A01 T00571035  RH  052%=      5-min Rain = 0
KBY1 091946Z 04008KT 06/M03 A3001 RMK A01 T00571033  RH  052%=      5-min Rain = 0
KBY1 091947Z 05007KT 06/M04 A3001 RMK A01 T00571035  RH  052%=      5-min Rain = 0
KBY1 091948Z 05009KT 06/M04 A3001 RMK A01 T00571036  RH  051%=      5-min Rain = 0
KBY1 091949Z 05009KT 06/M04 A3001 RMK A01 T00571038  RH  051%=      5-min Rain = 0
KBY1 091950Z 04009KT 06/M04 A3001 RMK A01 T00561036  RH  051%=      5-min Rain = 0
KBY1 091951Z 03008KT 06/M04 A3001 RMK A01 T00561036  RH  052%=      5-min Rain = 0
KBY1 091952Z 00007KT 06/M03 A3001 RMK A01 T00561032  RH  053%=      5-min Rain = 0
KBY1 091953Z 02009KT 06/M03 A3001 RMK A01 T00571030  RH  054%=      5-min Rain = 0
KBY1 091954Z 04010KT 06/M03 A3001 RMK A01 T00571032  RH  053%=      5-min Rain = 0
KBY1 091955Z 04008KT 06/M04 A3001 RMK A01 T00561036  RH  052%=      5-min Rain = 0
KBY1 091956Z 03010KT 06/M04 A3001 RMK A01 T00551035  RH  052%=      5-min Rain = 0
KBY1 091957Z 04009KT 06/M04 A3001 RMK A01 T00551037  RH  051%=      5-min Rain = 0
KBY1 091958Z 04008KT 06/M04 A3001 RMK A01 T00551038  RH  051%=      5-min Rain = 0
KBY1 091959Z 04007KT 06/M04 A3001 RMK A01 T00551037  RH  052%=      5-min Rain = 0
KBY1 092000Z 04005KT 06/M04 A30 RMK A01 T00551037  RH  051%=      5-min Rain = 0
KBY1 092001Z 04007KT 06/M04 A30 RMK A01 T00561035  RH  052%=      5-min Rain = 0
KBY1 092002Z 03006KT 06/M04 A30 RMK A01 T00571035  RH  051%=      5-min Rain = 0
KBY1 092003Z 02006KT 06/M04 A30 RMK A01 T00571037  RH  051%=      5-min Rain = 0
KBY1 092004Z 03006KT 06/M04 A30 RMK A01 T00571035  RH  051%=      5-min Rain = 0
KBY1 092005Z 03008KT 06/M04 A3001 RMK A01 T00591035  RH  051%=      5-min Rain = 0
KBY1 092006Z 05007KT 06/M04 A3001 RMK A01 T00591037  RH  050%=      5-min Rain = 0
KBY1 092007Z 05008KT 06/M04 A3001 RMK A01 T00591043  RH  048%=      5-min Rain = 0
KBY1 092008Z 04006KT 06/M05 A3001 RMK A01 T00581046  RH  047%=      5-min Rain = 0
KBY1 092009Z 04007KT 06/M05 A3001 RMK A01 T00591045  RH  047%=      5-min Rain = 0
KBY1 092010Z 04008KT 06/M05 A30 RMK A01 T00591046  RH  047%=      5-min Rain = 0
KBY1 092011Z 03009KT 06/M04 A30 RMK A01 T00581039  RH  050%=      5-min Rain = 0
KBY1 092012Z 03007KT 06/M04 A3001 RMK A01 T00571038  RH  051%=      5-min Rain = 0
KBY1 092013Z 03007KT 06/M04 A3001 RMK A01 T00571038  RH  050%=      5-min Rain = 0
KBY1 092014Z 03008KT 06/M04 A3001 RMK A01 T00581036  RH  051%=      5-min Rain = 0
KBY1 092015Z 02008KT 06/M04 A3001 RMK A01 T00591036  RH  050%=      5-min Rain = 0
KBY1 092016Z 03007KT 06/M04 A3001 RMK A01 T00591037  RH  050%=      5-min Rain = 0
KBY1 092017Z 03008KT 06/M04 A3001 RMK A01 T00581039  RH  050%=      5-min Rain = 0
KBY1 092018Z 04008KT 06/M04 A3001 RMK A01 T00581040  RH  049%=      5-min Rain = 0
KBY1 092019Z 05006KT 06/M04 A3001 RMK A01 T00581042  RH  049%=      5-min Rain = 0
KBY1 092020Z 04007KT 06/M04 A3001 RMK A01 T00581041  RH  049%=      5-min Rain = 0
KBY1 092021Z 05007KT 06/M04 A3001 RMK A01 T00571044  RH  048%=      5-min Rain = 0
KBY1 092022Z 04008KT 06/M04 A3001 RMK A01 T00571041  RH  049%=      5-min Rain = 0
KBY1 092023Z 02009KT 06/M04 A3001 RMK A01 T00571038  RH  051%=      5-min Rain = 0
KBY1 092024Z 02007KT 06/M04 A3001 RMK A01 T00571037  RH  051%=      5-min Rain = 0
KBY1 092025Z 02007KT 06/M04 A3001 RMK A01 T00571036  RH  051%=      5-min Rain = 0
KBY1 092026Z 01006KT 06/M04 A3001 RMK A01 T00571036  RH  051%=      5-min Rain = 0
KBY1 092027Z 03005KT 06/M04 A3001 RMK A01 T00571036  RH  051%=      5-min Rain = 0
KBY1 092028Z 03006KT 06/M04 A3001 RMK A01 T00571037  RH  051%=      5-min Rain = 0
KBY1 092029Z 03007KT 06/M04 A3001 RMK A01 T00571037  RH  051%=      5-min Rain = 0
KBY1 092030Z 04005KT 06/M04 A3001 RMK A01 T00561037  RH  051%=      5-min Rain = 0
KBY1 092031Z 02005KT 06/M04 A3001 RMK A01 T00561036  RH  051%=      5-min Rain = 0
KBY1 092032Z 02004KT 06/M04 A3001 RMK A01 T00581036  RH  051%=      5-min Rain = 0
KBY1 092033Z 01003KT 06/M04 A3001 RMK A01 T00581036  RH  051%=      5-min Rain = 0
KBY1 092034Z 02004KT 06/M04 A3001 RMK A01 T00591035  RH  051%=      5-min Rain = 0
KBY1 092035Z 03010KT 06/M04 A3001 RMK A01 T00601036  RH  050%=      5-min Rain = 0
KBY1 092036Z 03010KT 06/M04 A3001 RMK A01 T00601039  RH  049%=      5-min Rain = 0
KBY1 092037Z 03009KT 06/M04 A3001 RMK A01 T00601041  RH  049%=      5-min Rain = 0
KBY1 092038Z 03007KT 06/M04 A3001 RMK A01 T00591040  RH  049%=      5-min Rain = 0
KBY1 092039Z 03007KT 06/M04 A3001 RMK A01 T00591039  RH  049%=      5-min Rain = 0
KBY1 092040Z 03007KT 06/M04 A3001 RMK A01 T00601040  RH  049%=      5-min Rain = 0
KBY1 092041Z 02009KT 06/M04 A3001 RMK A01 T00591040  RH  049%=      5-min Rain = 0
KBY1 092042Z 03009KT 06/M04 A3001 RMK A01 T00601040  RH  049%=      5-min Rain = 0
KBY1 092043Z 03008KT 06/M04 A3001 RMK A01 T00591040  RH  049%=      5-min Rain = 0
KBY1 092044Z 02008KT 06/M04 A3001 RMK A01 T00591040  RH  049%=      5-min Rain = 0
KBY1 092045Z 02006KT 06/M04 A3001 RMK A01 T00581041  RH  049%=      5-min Rain = 0
KBY1 092046Z 02006KT 06/M04 A3001 RMK A01 T00581040  RH  050%=      5-min Rain = 0
KBY1 092047Z 02010KT 06/M04 A3001 RMK A01 T00591038  RH  050%=      5-min Rain = 0
KBY1 092048Z 02009KT 06/M04 A3001 RMK A01 T00591039  RH  049%=      5-min Rain = 0
KBY1 092049Z 03008KT 06/M04 A3001 RMK A01 T00591039  RH  049%=      5-min Rain = 0
KBY1 092050Z 02009KT 06/M04 A3001 RMK A01 T00601039  RH  049%=      5-min Rain = 0
KBY1 092051Z 03010KT 06/M04 A3001 RMK A01 T00591040  RH  049%=      5-min Rain = 0
KBY1 092052Z 04008KT 06/M04 A3001 RMK A01 T00591040  RH  049%=      5-min Rain = 0
KBY1 092053Z 03008KT 06/M04 A3001 RMK A01 T00581041  RH  049%=      5-min Rain = 0
KBY1 092054Z 03006KT 06/M04 A3001 RMK A01 T00581040  RH  049%=      5-min Rain = 0
KBY1 092055Z 04010KT 06/M04 A3001 RMK A01 T00581040  RH  049%=      5-min Rain = 0
KBY1 092056Z 03010KT 06/M04 A3001 RMK A01 T00581040  RH  049%=      5-min Rain = 0
KBY1 092057Z 03009KT 06/M04 A3001 RMK A01 T00581040  RH  049%=      5-min Rain = 0
KBY1 092058Z 03007KT 06/M04 A3001 RMK A01 T00581040  RH  049%=      5-min Rain = 0
KBY1 092059Z 03007KT 06/M04 A3001 RMK A01 T00581040  RH  049%=      5-min Rain = 0
KBY1 092100Z 03007KT 06/M04 A3001 RMK A01 T00581040  RH  050%=      5-min Rain = 0
KBY1 092101Z 03007KT 06/M04 A3001 RMK A01 T00581039  RH  049%=      5-min Rain = 0
KBY1 092102Z 03008KT 06/M04 A3001 RMK A01 T00591039  RH  049%=      5-min Rain = 0
KBY1 092103Z 03009KT 06/M04 A3001 RMK A01 T00591040  RH  049%=      5-min Rain = 0
KBY1 092104Z 02008KT 06/M04 A3001 RMK A01 T00591040  RH  049%=      5-min Rain = 0
KBY1 092105Z 03006KT 06/M04 A3001 RMK A01 T00591039  RH  049%=      5-min Rain = 0
KBY1 092106Z 03007KT 06/M04 A3001 RMK A01 T00591039  RH  049%=      5-min Rain = 0
KBY1 092107Z 02007KT 06/M04 A3001 RMK A01 T00591038  RH  050%=      5-min Rain = 0
KBY1 092108Z 03006KT 06/M04 A3001 RMK A01 T00601036  RH  050%=      5-min Rain = 0
KBY1 092109Z 04008KT 06/M04 A3002 RMK A01 T00611036  RH  050%=      5-min Rain = 0
KBY1 092110Z 05009KT 06/M04 A3002 RMK A01 T00611038  RH  049%=      5-min Rain = 0
KBY1 092111Z 03010KT 06/M04 A3002 RMK A01 T00601040  RH  049%=      5-min Rain = 0
KBY1 092112Z 03010KT 06/M04 A3002 RMK A01 T00591041  RH  049%=      5-min Rain = 0
KBY1 092113Z 02008KT 06/M04 A3002 RMK A01 T00581042  RH  049%=      5-min Rain = 0
KBY1 092114Z 02009KT 06/M04 A3002 RMK A01 T00581043  RH  048%=      5-min Rain = 0
KBY1 092115Z 01007KT 06/M04 A3002 RMK A01 T00581044  RH  048%=      5-min Rain = 0
KBY1 092116Z 02006KT 06/M04 A3002 RMK A01 T00581044  RH  048%=      5-min Rain = 0
KBY1 092117Z 02006KT 06/M04 A3002 RMK A01 T00591044  RH  048%=      5-min Rain = 0
KBY1 092118Z 04007KT 06/M04 A3002 RMK A01 T00591044  RH  048%=      5-min Rain = 0
KBY1 092119Z 03008KT 06/M04 A3002 RMK A01 T00591043  RH  048%=      5-min Rain = 0
KBY1 092120Z 03008KT 06/M04 A3002 RMK A01 T00591043  RH  048%=      5-min Rain = 0
KBY1 092121Z 02008KT 06/M04 A3002 RMK A01 T00601044  RH  047%=      5-min Rain = 0
KBY1 092122Z 04007KT 06/M04 A3002 RMK A01 T00591044  RH  047%=      5-min Rain = 0
KBY1 092123Z 03008KT 06/M04 A3002 RMK A01 T00601044  RH  047%=      5-min Rain = 0
KBY1 092124Z 05007G12KT 06/M04 A3002 RMK A01 T00601043  RH  048%=      5-min Rain = 0
KBY1 092125Z 05009KT 06/M04 A3002 RMK A01 T00601044  RH  047%=      5-min Rain = 0
KBY1 092126Z 06009KT 06/M05 A3002 RMK A01 T00601045  RH  047%=      5-min Rain = 0
KBY1 092127Z 04009KT 06/M05 A3002 RMK A01 T00601045  RH  047%=      5-min Rain = 0
KBY1 092128Z 02008KT 06/M05 A3002 RMK A01 T00601046  RH  047%=      5-min Rain = 0
KBY1 092129Z 01007KT 06/M05 A3001 RMK A01 T00591046  RH  047%=      5-min Rain = 0
KBY1 092130Z 02007KT 06/M05 A3002 RMK A01 T00601046  RH  047%=      5-min Rain = 0
KBY1 092131Z 02006KT 06/M05 A3002 RMK A01 T00601045  RH  047%=      5-min Rain = 0
KBY1 092132Z 03006KT 06/M05 A3002 RMK A01 T00601046  RH  047%=      5-min Rain = 0
KBY1 092133Z 04007KT 06/M05 A3002 RMK A01 T00591046  RH  047%=      5-min Rain = 0
KBY1 092134Z 04006KT 06/M05 A3002 RMK A01 T00591046  RH  047%=      5-min Rain = 0
KBY1 092135Z 05005KT 06/M05 A3002 RMK A01 T00591046  RH  047%=      5-min Rain = 0
KBY1 092136Z 06005KT 06/M04 A3002 RMK A01 T00591044  RH  047%=      5-min Rain = 0
KBY1 092137Z 05008KT 06/M04 A3002 RMK A01 T00601044  RH  047%=      5-min Rain = 0
KBY1 092138Z 05006KT 06/M05 A3002 RMK A01 T00601045  RH  047%=      5-min Rain = 0
KBY1 092139Z 05008KT 06/M05 A3002 RMK A01 T00601046  RH  046%=      5-min Rain = 0
KBY1 092140Z 03010KT 06/M05 A3002 RMK A01 T00601048  RH  046%=      5-min Rain = 0
KBY1 092141Z 04009KT 06/M05 A3002 RMK A01 T00591048  RH  046%=      5-min Rain = 0
KBY1 092142Z 04008KT 06/M05 A3002 RMK A01 T00591048  RH  046%=      5-min Rain = 0
KBY1 092143Z 05008KT 06/M05 A3002 RMK A01 T00591046  RH  047%=      5-min Rain = 0
KBY1 092144Z 04005KT 06/M05 A3002 RMK A01 T00591045  RH  047%=      5-min Rain = 0
KBY1 092145Z 04006KT 06/M05 A3002 RMK A01 T00601045  RH  047%=      5-min Rain = 0
KBY1 092146Z 04005KT 06/M05 A3002 RMK A01 T00601045  RH  047%=      5-min Rain = 0
KBY1 092147Z 04006KT 06/M04 A3002 RMK A01 T00611044  RH  047%=      5-min Rain = 0
KBY1 092148Z 03006KT 06/M05 A3002 RMK A01 T00611046  RH  046%=      5-min Rain = 0
KBY1 092149Z 03007KT 06/M05 A3002 RMK A01 T00601047  RH  046%=      5-min Rain = 0
KBY1 092150Z 03006KT 06/M05 A3002 RMK A01 T00601047  RH  046%=      5-min Rain = 0
KBY1 092151Z 05005KT 06/M05 A3002 RMK A01 T00591047  RH  047%=      5-min Rain = 0
KBY1 092152Z 03006KT 06/M05 A3002 RMK A01 T00601045  RH  047%=      5-min Rain = 0
KBY1 092153Z 03009KT 06/M05 A3002 RMK A01 T00601048  RH  046%=      5-min Rain = 0
KBY1 092154Z 04007KT 06/M05 A3002 RMK A01 T00601050  RH  045%=      5-min Rain = 0
KBY1 092155Z 04005KT 06/M05 A3002 RMK A01 T00601050  RH  045%=      5-min Rain = 0
KBY1 092156Z 05008KT 06/M05 A3002 RMK A01 T00601048  RH  046%=      5-min Rain = 0
KBY1 092157Z 04007KT 06/M05 A3002 RMK A01 T00591049  RH  046%=      5-min Rain = 0
KBY1 092158Z 04007KT 06/M05 A3002 RMK A01 T00591048  RH  046%=      5-min Rain = 0
KBY1 092159Z 03006KT 06/M05 A3002 RMK A01 T00591048  RH  046%=      5-min Rain = 0
KBY1 092200Z 05006KT 06/M05 A3002 RMK A01 T00591048  RH  046%=      5-min Rain = 0
KBY1 092201Z 05006KT 06/M05 A3003 RMK A01 T00591048  RH  046%=      5-min Rain = 0
KBY1 092202Z 04005KT 06/M05 A3003 RMK A01 T00591049  RH  046%=      5-min Rain = 0
KBY1 092203Z 04006KT 06/M05 A3003 RMK A01 T00591049  RH  046%=      5-min Rain = 0
KBY1 092204Z 04006KT 06/M05 A3002 RMK A01 T00591050  RH  045%=      5-min Rain = 0
KBY1 092205Z 05005KT 06/M05 A3002 RMK A01 T00591050  RH  045%=      5-min Rain = 0
KBY1 092206Z 05005KT 06/M05 A3002 RMK A01 T00601049  RH  046%=      5-min Rain = 0
KBY1 092207Z 04005KT 06/M05 A3002 RMK A01 T00601048  RH  046%=      5-min Rain = 0
KBY1 092208Z 04006KT 06/M05 A3002 RMK A01 T00601050  RH  045%=      5-min Rain = 0
KBY1 092209Z 04009KT 06/M05 A3002 RMK A01 T00601051  RH  045%=      5-min Rain = 0
KBY1 092210Z 04009KT 06/M05 A3003 RMK A01 T00601053  RH  044%=      5-min Rain = 0
KBY1 092211Z 04008KT 06/M06 A3003 RMK A01 T00601055  RH  044%=      5-min Rain = 0
KBY1 092212Z 04008KT 06/M06 A3003 RMK A01 T00591055  RH  044%=      5-min Rain = 0
KBY1 092213Z 03008KT 06/M05 A3003 RMK A01 T00591053  RH  044%=      5-min Rain = 0
KBY1 092214Z 04007KT 06/M05 A3003 RMK A01 T00591053  RH  045%=      5-min Rain = 0
KBY1 092215Z 04007KT 06/M05 A3003 RMK A01 T00591052  RH  045%=      5-min Rain = 0
KBY1 092216Z 05006KT 06/M05 A3003 RMK A01 T00591052  RH  045%=      5-min Rain = 0
KBY1 092217Z 04004KT 06/M05 A3003 RMK A01 T00591052  RH  045%=      5-min Rain = 0
KBY1 092218Z 06006KT 06/M05 A3003 RMK A01 T00601051  RH  045%=      5-min Rain = 0
KBY1 092219Z 06005KT 06/M05 A3003 RMK A01 T00601053  RH  044%=      5-min Rain = 0
KBY1 092220Z 06005KT 06/M05 A3003 RMK A01 T00601052  RH  044%=      5-min Rain = 0
KBY1 092221Z 04005KT 06/M05 A3003 RMK A01 T00601053  RH  044%=      5-min Rain = 0
KBY1 092222Z 04005KT 06/M05 A3003 RMK A01 T00601054  RH  044%=      5-min Rain = 0
KBY1 092223Z 04005KT 06/M06 A3003 RMK A01 T00601056  RH  043%=      5-min Rain = 0
KBY1 092224Z 04008KT 06/M06 A3003 RMK A01 T00601059  RH  042%=      5-min Rain = 0
KBY1 092225Z 05008KT 06/M06 A3003 RMK A01 T00611064  RH  040%=      5-min Rain = 0
KBY1 092226Z 05006KT 06/M07 A3003 RMK A01 T00601065  RH  040%=      5-min Rain = 0
KBY1 092227Z 04006KT 06/M06 A3003 RMK A01 T00601062  RH  041%=      5-min Rain = 0
KBY1 092228Z 03007KT 06/M06 A3003 RMK A01 T00601063  RH  041%=      5-min Rain = 0
KBY1 092229Z 04006KT 06/M06 A3003 RMK A01 T00601064  RH  040%=      5-min Rain = 0
KBY1 092230Z 04005KT 06/M06 A3003 RMK A01 T00601064  RH  041%=      5-min Rain = 0
KBY1 092231Z 05005KT 06/M06 A3003 RMK A01 T00601062  RH  041%=      5-min Rain = 0
KBY1 092232Z 04007KT 06/M06 A3003 RMK A01 T00601062  RH  041%=      5-min Rain = 0
KBY1 092233Z 05007KT 06/M06 A3003 RMK A01 T00601061  RH  041%=      5-min Rain = 0
KBY1 092234Z 07007KT 06/M06 A3003 RMK A01 T00601060  RH  042%=      5-min Rain = 0
KBY1 092235Z 06007KT 06/M06 A3003 RMK A01 T00601060  RH  042%=      5-min Rain = 0
KBY1 092236Z 06007KT 06/M06 A3003 RMK A01 T00591059  RH  043%=      5-min Rain = 0
KBY1 092237Z 06007KT 06/M06 A3003 RMK A01 T00591059  RH  043%=      5-min Rain = 0
KBY1 092238Z 06005KT 06/M06 A3003 RMK A01 T00591059  RH  042%=      5-min Rain = 0
KBY1 092239Z 07007KT 06/M06 A3003 RMK A01 T00591058  RH  043%=      5-min Rain = 0
KBY1 092240Z 06006KT 06/M06 A3003 RMK A01 T00591058  RH  043%=      5-min Rain = 0
KBY1 092241Z 07007KT 06/M06 A3003 RMK A01 T00591059  RH  042%=      5-min Rain = 0
KBY1 092242Z 07007KT 06/M06 A3003 RMK A01 T00591059  RH  042%=      5-min Rain = 0
KBY1 092243Z 06008KT 06/M06 A3003 RMK A01 T00591060  RH  042%=      5-min Rain = 0
KBY1 092244Z 07007KT 06/M06 A3003 RMK A01 T00591062  RH  042%=      5-min Rain = 0
KBY1 092245Z 06006KT 06/M06 A3003 RMK A01 T00581062  RH  042%=      5-min Rain = 0
KBY1 092246Z 06007KT 06/M06 A3003 RMK A01 T00581063  RH  041%=      5-min Rain = 0
KBY1 092247Z 06007KT 06/M06 A3003 RMK A01 T00581064  RH  041%=      5-min Rain = 0
KBY1 092248Z 06005KT 06/M06 A3004 RMK A01 T00581064  RH  041%=      5-min Rain = 0
KBY1 092249Z 08006KT 06/M06 A3004 RMK A01 T00581063  RH  041%=      5-min Rain = 0
KBY1 092250Z 07007KT 06/M06 A3003 RMK A01 T00581064  RH  041%=      5-min Rain = 0
KBY1 092251Z 07006KT 06/M06 A3004 RMK A01 T00581064  RH  041%=      5-min Rain = 0
KBY1 092252Z 07006KT 06/M07 A3004 RMK A01 T00571065  RH  041%=      5-min Rain = 0
KBY1 092253Z 07006KT 06/M06 A3004 RMK A01 T00581064  RH  041%=      5-min Rain = 0
KBY1 092254Z 06005KT 06/M06 A3004 RMK A01 T00581063  RH  041%=      5-min Rain = 0
KBY1 092255Z 06005KT 06/M06 A3004 RMK A01 T00581063  RH  042%=      5-min Rain = 0
KBY1 092256Z 07005KT 06/M06 A3004 RMK A01 T00571064  RH  041%=      5-min Rain = 0
KBY1 092257Z 07006KT 06/M06 A3004 RMK A01 T00571064  RH  041%=      5-min Rain = 0
KBY1 092258Z 07007KT 06/M06 A3004 RMK A01 T00571063  RH  042%=      5-min Rain = 0
KBY1 092259Z 08008KT 06/M06 A3004 RMK A01 T00571064  RH  041%=      5-min Rain = 0
KBY1 092300Z 08007KT 06/M07 A3004 RMK A01 T00571065  RH  041%=      5-min Rain = 0
KBY1 092301Z 07006KT 06/M07 A3004 RMK A01 T00571065  RH  041%=      5-min Rain = 0
KBY1 092302Z 07006KT 06/M07 A3004 RMK A01 T00561065  RH  041%=      5-min Rain = 0
KBY1 092303Z 06008KT 06/M07 A3004 RMK A01 T00561066  RH  041%=      5-min Rain = 0
KBY1 092304Z 06006KT 06/M07 A3004 RMK A01 T00561066  RH  041%=      5-min Rain = 0
KBY1 092305Z 06006KT 06/M07 A3004 RMK A01 T00561066  RH  041%=      5-min Rain = 0
KBY1 092306Z 06006KT 06/M07 A3004 RMK A01 T00561066  RH  041%=      5-min Rain = 0
KBY1 092307Z 06006KT 06/M07 A3004 RMK A01 T00561067  RH  041%=      5-min Rain = 0
KBY1 092308Z 06006KT 06/M07 A3004 RMK A01 T00561067  RH  040%=      5-min Rain = 0
KBY1 092309Z 06006KT 06/M07 A3004 RMK A01 T00561067  RH  041%=      5-min Rain = 0
KBY1 092310Z 06006KT 06/M07 A3004 RMK A01 T00561067  RH  041%=      5-min Rain = 0
KBY1 092311Z 07005KT 06/M07 A3004 RMK A01 T00561067  RH  041%=      5-min Rain = 0
KBY1 092312Z 07006KT 06/M07 A3004 RMK A01 T00561066  RH  041%=      5-min Rain = 0
KBY1 092313Z 06006KT 06/M07 A3004 RMK A01 T00561065  RH  041%=      5-min Rain = 0
KBY1 092314Z 06007KT 06/M07 A3005 RMK A01 T00571065  RH  041%=      5-min Rain = 0
KBY1 092315Z 06005KT 06/M07 A3005 RMK A01 T00561066  RH  041%=      5-min Rain = 0
KBY1 092316Z 06006KT 06/M07 A3005 RMK A01 T00561066  RH  041%=      5-min Rain = 0
KBY1 092317Z 06007KT 06/M07 A3005 RMK A01 T00571067  RH  041%=      5-min Rain = 0
KBY1 092318Z 05007KT 06/M07 A3005 RMK A01 T00571066  RH  041%=      5-min Rain = 0
KBY1 092319Z 06005KT 06/M07 A3005 RMK A01 T00571067  RH  041%=      5-min Rain = 0
KBY1 092320Z 07007KT 06/M07 A3005 RMK A01 T00571067  RH  041%=      5-min Rain = 0
KBY1 092321Z 06007KT 06/M07 A3005 RMK A01 T00571067  RH  041%=      5-min Rain = 0
KBY1 092322Z 06007KT 06/M07 A3005 RMK A01 T00561067  RH  041%=      5-min Rain = 0
KBY1 092323Z 07005KT 06/M07 A3005 RMK A01 T00561066  RH  041%=      5-min Rain = 0
KBY1 092324Z 08005KT 06/M06 A3005 RMK A01 T00561064  RH  042%=      5-min Rain = 0
KBY1 092325Z 08006KT 06/M06 A3005 RMK A01 T00561064  RH  042%=      5-min Rain = 0
KBY1 092326Z 08005KT 06/M06 A3005 RMK A01 T00551063  RH  042%=      5-min Rain = 0
KBY1 092327Z 08005KT 05/M06 A3005 RMK A01 T00541063  RH  042%=      5-min Rain = 0
KBY1 092328Z 07006KT 05/M06 A3005 RMK A01 T00541063  RH  043%=      5-min Rain = 0
KBY1 092329Z 08006KT 05/M06 A3005 RMK A01 T00541064  RH  042%=      5-min Rain = 0
KBY1 092330Z 07006KT 05/M06 A3005 RMK A01 T00531064  RH  043%=      5-min Rain = 0
KBY1 092331Z 07006KT 05/M06 A3005 RMK A01 T00531063  RH  043%=      5-min Rain = 0
KBY1 092332Z 07007KT 05/M06 A3005 RMK A01 T00521064  RH  043%=      5-min Rain = 0
KBY1 092333Z 08005KT 05/M06 A3005 RMK A01 T00521064  RH  043%=      5-min Rain = 0
KBY1 092334Z 08006KT 05/M06 A3005 RMK A01 T00511064  RH  043%=      5-min Rain = 0
KBY1 092335Z 08007KT 05/M06 A3005 RMK A01 T00511064  RH  043%=      5-min Rain = 0
KBY1 092336Z 08006KT 05/M06 A3005 RMK A01 T00511064  RH  043%=      5-min Rain = 0
KBY1 092337Z 09006KT 05/M06 A3005 RMK A01 T00501064  RH  043%=      5-min Rain = 0
KBY1 092338Z 09006KT 05/M06 A3005 RMK A01 T00501064  RH  044%=      5-min Rain = 0
KBY1 092339Z 07006KT 05/M06 A3005 RMK A01 T00501063  RH  044%=      5-min Rain = 0
KBY1 092340Z 08007KT 05/M06 A3005 RMK A01 T00491063  RH  044%=      5-min Rain = 0
KBY1 092341Z 09007KT 05/M06 A3006 RMK A01 T00501064  RH  044%=      5-min Rain = 0
KBY1 092342Z 09008KT 05/M06 A3006 RMK A01 T00491064  RH  044%=      5-min Rain = 0
KBY1 092343Z 09007KT 05/M06 A3006 RMK A01 T00501064  RH  044%=      5-min Rain = 0
KBY1 092344Z 09005KT 05/M06 A3006 RMK A01 T00501063  RH  044%=      5-min Rain = 0
KBY1 092345Z 08005KT 05/M06 A3006 RMK A01 T00501062  RH  044%=      5-min Rain = 0
KBY1 092346Z 08006KT 05/M06 A3006 RMK A01 T00501062  RH  044%=      5-min Rain = 0
KBY1 092347Z 09005KT 05/M06 A3006 RMK A01 T00501063  RH  044%=      5-min Rain = 0
KBY1 092348Z 09005KT 05/M06 A3006 RMK A01 T00491062  RH  044%=      5-min Rain = 0
KBY1 092349Z 09006KT 05/M06 A3006 RMK A01 T00491062  RH  044%=      5-min Rain = 0
KBY1 092350Z 09006KT 05/M06 A3006 RMK A01 T00491062  RH  044%=      5-min Rain = 0
KBY1 092351Z 09007KT 05/M06 A3007 RMK A01 T00491062  RH  044%=      5-min Rain = 0
KBY1 092352Z 09005KT 05/M06 A3007 RMK A01 T00491063  RH  044%=      5-min Rain = 0
KBY1 092353Z 09007KT 05/M06 A3007 RMK A01 T00491063  RH  044%=      5-min Rain = 0
KBY1 092354Z 08007KT 05/M06 A3007 RMK A01 T00491064  RH  044%=      5-min Rain = 0
KBY1 092355Z 08006KT 05/M06 A3006 RMK A01 T00491063  RH  044%=      5-min Rain = 0
KBY1 092356Z 09006KT 05/M06 A3007 RMK A01 T00491064  RH  044%=      5-min Rain = 0
KBY1 092357Z 09006KT 05/M06 A3007 RMK A01 T00491063  RH  044%=      5-min Rain = 0
KBY1 092358Z 08006KT 05/M06 A3007 RMK A01 T00481063  RH  044%=      5-min Rain = 0
KBY1 092359Z 08006KT 05/M06 A3007 RMK A01 T00481063  RH  044%=      5-min Rain = 0
KBY1 100000Z 08005KT 05/M06 A3007 RMK A01 T00481064  RH  044%=      5-min Rain = 0
KBY1 100001Z 08005KT 05/M06 A3007 RMK A01 T00481064  RH  044%=      5-min Rain = 0
KBY1 100002Z 08005KT 05/M06 A3007 RMK A01 T00481064  RH  044%=      5-min Rain = 0
KBY1 100003Z 08005KT 05/M06 A3007 RMK A01 T00471064  RH  044%=      5-min Rain = 0
KBY1 100004Z 08005KT 05/M07 A3007 RMK A01 T00471065  RH  044%=      5-min Rain = 0
KBY1 100005Z 08005KT 05/M07 A3007 RMK A01 T00471065  RH  044%=      5-min Rain = 0
KBY1 100006Z 08006KT 05/M07 A3007 RMK A01 T00471065  RH  044%=      5-min Rain = 0
KBY1 100007Z 07004KT 05/M06 A3007 RMK A01 T00471064  RH  044%=      5-min Rain = 0
KBY1 100008Z 07006KT 05/M06 A3007 RMK A01 T00471064  RH  045%=      5-min Rain = 0
KBY1 100009Z 07007KT 05/M07 A3007 RMK A01 T00461066  RH  044%=      5-min Rain = 0
KBY1 100010Z 07008KT 05/M07 A3008 RMK A01 T00461067  RH  044%=      5-min Rain = 0
KBY1 100011Z 07006KT 05/M07 A3008 RMK A01 T00461067  RH  044%=      5-min Rain = 0
KBY1 100012Z 07006KT 05/M07 A3008 RMK A01 T00461067  RH  044%=      5-min Rain = 0
KBY1 100013Z 08006KT 05/M07 A3008 RMK A01 T00461067  RH  044%=      5-min Rain = 0
KBY1 100014Z 07005KT 05/M07 A3008 RMK A01 T00461067  RH  044%=      5-min Rain = 0
KBY1 100015Z 07005KT 05/M07 A3009 RMK A01 T00461066  RH  044%=      5-min Rain = 0
KBY1 100016Z 08005KT 05/M07 A3009 RMK A01 T00461066  RH  044%=      5-min Rain = 0
KBY1 100017Z 08005KT 05/M07 A3009 RMK A01 T00461067  RH  044%=      5-min Rain = 0
KBY1 100018Z 08005KT 05/M07 A3009 RMK A01 T00461066  RH  044%=      5-min Rain = 0
KBY1 100019Z 09005KT 05/M07 A3009 RMK A01 T00461065  RH  044%=      5-min Rain = 0
KBY1 100020Z 08005KT 05/M07 A3009 RMK A01 T00461065  RH  044%=      5-min Rain = 0
KBY1 100021Z 08004KT 05/M07 A3009 RMK A01 T00461065  RH  044%=      5-min Rain = 0
KBY1 100022Z 09006KT 05/M07 A3009 RMK A01 T00451065  RH  045%=      5-min Rain = 0
KBY1 100023Z 08007KT 05/M07 A3009 RMK A01 T00451066  RH  044%=      5-min Rain = 0
KBY1 100024Z 08006KT 05/M07 A3009 RMK A01 T00461066  RH  044%=      5-min Rain = 0
KBY1 100025Z 09005KT 05/M07 A3009 RMK A01 T00451065  RH  044%=      5-min Rain = 0
KBY1 100026Z 09007KT 05/M07 A3009 RMK A01 T00451066  RH  044%=      5-min Rain = 0
KBY1 100027Z 09006KT 05/M07 A301 RMK A01 T00451067  RH  044%=      5-min Rain = 0
KBY1 100028Z 09007KT 05/M07 A301 RMK A01 T00451067  RH  044%=      5-min Rain = 0
KBY1 100029Z 07006KT 05/M07 A301 RMK A01 T00451067  RH  044%=      5-min Rain = 0
KBY1 100030Z 08005KT 05/M07 A301 RMK A01 T00451067  RH  044%=      5-min Rain = 0
KBY1 100031Z 08006KT 05/M07 A301 RMK A01 T00451066  RH  044%=      5-min Rain = 0
KBY1 100032Z 08006KT 05/M07 A301 RMK A01 T00451067  RH  044%=      5-min Rain = 0
KBY1 100033Z 07006KT 05/M07 A301 RMK A01 T00451067  RH  044%=      5-min Rain = 0
KBY1 100034Z 08006KT 05/M07 A301 RMK A01 T00451067  RH  044%=      5-min Rain = 0
KBY1 100035Z 08007KT 04/M07 A301 RMK A01 T00441067  RH  044%=      5-min Rain = 0
KBY1 100036Z 08006KT 04/M07 A301 RMK A01 T00441068  RH  044%=      5-min Rain = 0
KBY1 100037Z 08006KT 04/M07 A301 RMK A01 T00441068  RH  044%=      5-min Rain = 0
KBY1 100038Z 08005KT 04/M07 A301 RMK A01 T00441068  RH  044%=      5-min Rain = 0
KBY1 100039Z 08005KT 04/M07 A301 RMK A01 T00441067  RH  044%=      5-min Rain = 0
KBY1 100040Z 09007KT 04/M07 A301 RMK A01 T00441067  RH  044%=      5-min Rain = 0
KBY1 100041Z 08006KT 04/M07 A301 RMK A01 T00441068  RH  044%=      5-min Rain = 0
KBY1 100042Z 08005KT 04/M07 A301 RMK A01 T00441067  RH  044%=      5-min Rain = 0
KBY1 100043Z 07006KT 04/M07 A301 RMK A01 T00431068  RH  044%=      5-min Rain = 0
KBY1 100044Z 08004KT 04/M07 A3011 RMK A01 T00441068  RH  044%=      5-min Rain = 0
KBY1 100045Z 08004KT 04/M07 A3011 RMK A01 T00431067  RH  045%=      5-min Rain = 0
KBY1 100046Z 09004KT 04/M07 A3011 RMK A01 T00431066  RH  045%=      5-min Rain = 0
KBY1 100047Z 09005KT 04/M07 A3011 RMK A01 T00421066  RH  045%=      5-min Rain = 0
KBY1 100048Z 09006KT 04/M07 A3011 RMK A01 T00421066  RH  045%=      5-min Rain = 0
KBY1 100049Z 08007KT 04/M07 A3011 RMK A01 T00421066  RH  045%=      5-min Rain = 0
KBY1 100050Z 08006KT 04/M07 A3011 RMK A01 T00421068  RH  045%=      5-min Rain = 0
KBY1 100051Z 08006KT 04/M07 A3011 RMK A01 T00421068  RH  045%=      5-min Rain = 0
KBY1 100052Z 08005KT 04/M07 A3011 RMK A01 T00421067  RH  045%=      5-min Rain = 0
KBY1 100053Z 09006KT 04/M07 A3011 RMK A01 T00421066  RH  046%=      5-min Rain = 0
KBY1 100054Z 09006KT 04/M07 A3011 RMK A01 T00411067  RH  045%=      5-min Rain = 0
KBY1 100055Z 08008KT 04/M07 A3011 RMK A01 T00411067  RH  045%=      5-min Rain = 0
KBY1 100056Z 09008KT 04/M07 A3011 RMK A01 T00411068  RH  045%=      5-min Rain = 0
KBY1 100057Z 08006KT 04/M07 A3011 RMK A01 T00411069  RH  045%=      5-min Rain = 0
KBY1 100058Z 08005KT 04/M07 A3011 RMK A01 T00411068  RH  045%=      5-min Rain = 0
KBY1 100059Z 08005KT 04/M07 A3011 RMK A01 T00401068  RH  045%=      5-min Rain = 0
KBY1 100100Z 08005KT 04/M07 A3011 RMK A01 T00401068  RH  045%=      5-min Rain = 0
KBY1 100101Z 08005KT 04/M07 A3011 RMK A01 T00401067  RH  046%=      5-min Rain = 0
KBY1 100102Z 08006KT 04/M07 A3011 RMK A01 T00391067  RH  046%=      5-min Rain = 0
KBY1 100103Z 08006KT 04/M07 A3011 RMK A01 T00391068  RH  046%=      5-min Rain = 0
KBY1 100104Z 08006KT 04/M07 A3012 RMK A01 T00391068  RH  045%=      5-min Rain = 0
KBY1 100105Z 07007KT 04/M07 A3012 RMK A01 T00401068  RH  045%=      5-min Rain = 0
KBY1 100106Z 08007KT 04/M07 A3012 RMK A01 T00401069  RH  045%=      5-min Rain = 0
KBY1 100107Z 08006KT 04/M07 A3012 RMK A01 T00401069  RH  045%=      5-min Rain = 0
KBY1 100108Z 08006KT 04/M07 A3012 RMK A01 T00401068  RH  045%=      5-min Rain = 0
KBY1 100109Z 07006KT 04/M07 A3012 RMK A01 T00401068  RH  045%=      5-min Rain = 0
KBY1 100110Z 08005KT 04/M07 A3012 RMK A01 T00401067  RH  046%=      5-min Rain = 0
KBY1 100111Z 08006KT 04/M07 A3012 RMK A01 T00401066  RH  046%=      5-min Rain = 0
KBY1 100112Z 08006KT 04/M07 A3012 RMK A01 T00401067  RH  045%=      5-min Rain = 0
KBY1 100113Z 09004KT 04/M07 A3012 RMK A01 T00401067  RH  046%=      5-min Rain = 0
KBY1 100114Z 09005KT 04/M07 A3012 RMK A01 T00401066  RH  046%=      5-min Rain = 0
KBY1 100115Z 08006KT 04/M07 A3012 RMK A01 T00401066  RH  046%=      5-min Rain = 0
KBY1 100116Z 08006KT 04/M07 A3012 RMK A01 T00401066  RH  046%=      5-min Rain = 0
KBY1 100117Z 08005KT 04/M07 A3012 RMK A01 T00391066  RH  046%=      5-min Rain = 0
KBY1 100118Z 08007KT 04/M07 A3012 RMK A01 T00391066  RH  046%=      5-min Rain = 0
KBY1 100119Z 08007KT 04/M07 A3013 RMK A01 T00391066  RH  046%=      5-min Rain = 0
KBY1 100120Z 08005KT 04/M07 A3012 RMK A01 T00391067  RH  046%=      5-min Rain = 0
KBY1 100121Z 08005KT 04/M07 A3012 RMK A01 T00391066  RH  046%=      5-min Rain = 0
KBY1 100122Z 08005KT 04/M07 A3012 RMK A01 T00391065  RH  047%=      5-min Rain = 0
KBY1 100123Z 08007KT 04/M07 A3012 RMK A01 T00381065  RH  047%=      5-min Rain = 0
KBY1 100124Z 08006KT 04/M07 A3012 RMK A01 T00381066  RH  046%=      5-min Rain = 0
KBY1 100125Z 08006KT 04/M07 A3012 RMK A01 T00381066  RH  047%=      5-min Rain = 0
KBY1 100126Z 09005KT 04/M07 A3012 RMK A01 T00371066  RH  047%=      5-min Rain = 0
KBY1 100127Z 09005KT 04/M07 A3012 RMK A01 T00371066  RH  047%=      5-min Rain = 0
KBY1 100128Z 09005KT 04/M07 A3012 RMK A01 T00371065  RH  047%=      5-min Rain = 0
KBY1 100129Z 10006KT 04/M07 A3012 RMK A01 T00361065  RH  048%=      5-min Rain = 0
KBY1 100130Z 10005KT 04/M07 A3012 RMK A01 T00361065  RH  048%=      5-min Rain = 0
KBY1 100131Z 09005KT 04/M07 A3012 RMK A01 T00351065  RH  048%=      5-min Rain = 0
KBY1 100132Z 09004KT 04/M07 A3012 RMK A01 T00351065  RH  048%=      5-min Rain = 0
KBY1 100133Z 09004KT 03/M07 A3012 RMK A01 T00341065  RH  048%=      5-min Rain = 0
KBY1 100134Z 09005KT 03/M07 A3012 RMK A01 T00331065  RH  049%=      5-min Rain = 0
KBY1 100135Z 09004KT 03/M07 A3012 RMK A01 T00311065  RH  049%=      5-min Rain = 0
KBY1 100136Z 09004KT 03/M07 A3012 RMK A01 T00301066  RH  049%=      5-min Rain = 0
KBY1 100137Z 09004KT 03/M07 A3012 RMK A01 T00291066  RH  050%=      5-min Rain = 0
KBY1 100138Z 10004KT 03/M07 A3012 RMK A01 T00281066  RH  050%=      5-min Rain = 0
KBY1 100139Z 10004KT 03/M07 A3012 RMK A01 T00271065  RH  050%=      5-min Rain = 0
KBY1 100140Z 09004KT 03/M07 A3012 RMK A01 T00261066  RH  051%=      5-min Rain = 0
KBY1 100141Z 09004KT 03/M07 A3012 RMK A01 T00261066  RH  051%=      5-min Rain = 0
KBY1 100142Z 09004KT 02/M07 A3012 RMK A01 T00241066  RH  051%=      5-min Rain = 0
KBY1 100143Z 09005KT 02/M07 A3012 RMK A01 T00231066  RH  052%=      5-min Rain = 0
KBY1 100144Z 09005KT 02/M07 A3012 RMK A01 T00221067  RH  052%=      5-min Rain = 0
KBY1 100145Z 08004KT 02/M07 A3012 RMK A01 T00211066  RH  052%=      5-min Rain = 0
KBY1 100146Z 08004KT 02/M07 A3012 RMK A01 T00201066  RH  053%=      5-min Rain = 0
KBY1 100147Z 08004KT 02/M07 A3012 RMK A01 T00201066  RH  053%=      5-min Rain = 0
KBY1 100148Z 08003KT 02/M07 A3012 RMK A01 T00201066  RH  053%=      5-min Rain = 0
KBY1 100149Z 08003KT 02/M07 A3012 RMK A01 T00201065  RH  053%=      5-min Rain = 0
KBY1 100150Z 08003KT 02/M07 A3012 RMK A01 T00201065  RH  053%=      5-min Rain = 0
KBY1 100151Z 09004KT 02/M07 A3012 RMK A01 T00201066  RH  053%=      5-min Rain = 0
KBY1 100152Z 09004KT 02/M07 A3013 RMK A01 T00201066  RH  053%=      5-min Rain = 0
KBY1 100153Z 09004KT 02/M07 A3013 RMK A01 T00201067  RH  053%=      5-min Rain = 0
KBY1 100154Z 08003KT 02/M07 A3013 RMK A01 T00201068  RH  052%=      5-min Rain = 0
KBY1 100155Z 08003KT 02/M07 A3013 RMK A01 T00201068  RH  052%=      5-min Rain = 0
KBY1 100156Z 08003KT 02/M07 A3013 RMK A01 T00201067  RH  052%=      5-min Rain = 0
KBY1 100157Z 09003KT 02/M07 A3013 RMK A01 T00201067  RH  053%=      5-min Rain = 0
KBY1 100158Z 09003KT 02/M07 A3013 RMK A01 T00191067  RH  053%=      5-min Rain = 0
KBY1 100159Z 08003KT 02/M07 A3013 RMK A01 T00191067  RH  053%=      5-min Rain = 0
KBY1 100200Z 08003KT 02/M07 A3013 RMK A01 T00191067  RH  053%=      5-min Rain = 0
KBY1 100201Z 08003KT 02/M07 A3013 RMK A01 T00181068  RH  053%=      5-min Rain = 0
KBY1 100202Z 08003KT 02/M07 A3013 RMK A01 T00171068  RH  053%=      5-min Rain = 0
KBY1 100203Z 09003KT 02/M07 A3013 RMK A01 T00171068  RH  053%=      5-min Rain = 0
KBY1 100204Z 09003KT 02/M07 A3013 RMK A01 T00171068  RH  053%=      5-min Rain = 0
KBY1 100205Z 09003KT 02/M07 A3013 RMK A01 T00161069  RH  053%=      5-min Rain = 0
KBY1 100206Z 09003KT 02/M07 A3013 RMK A01 T00151069  RH  053%=      5-min Rain = 0
KBY1 100207Z 09003KT 02/M07 A3013 RMK A01 T00151069  RH  054%=      5-min Rain = 0
KBY1 100208Z 10002KT 01/M07 A3013 RMK A01 T00141069  RH  054%=      5-min Rain = 0
KBY1 100209Z 11003KT 01/M07 A3013 RMK A01 T00141069  RH  054%=      5-min Rain = 0
KBY1 100210Z 11002KT 01/M07 A3013 RMK A01 T00131069  RH  054%=      5-min Rain = 0
KBY1 100211Z 11002KT 01/M07 A3013 RMK A01 T00121070  RH  054%=      5-min Rain = 0
KBY1 100212Z 10003KT 01/M07 A3013 RMK A01 T00121070  RH  055%=      5-min Rain = 0
KBY1 100213Z 10003KT 01/M07 A3014 RMK A01 T00111070  RH  055%=      5-min Rain = 0
KBY1 100214Z 09002KT 01/M07 A3014 RMK A01 T00111070  RH  055%=      5-min Rain = 0
KBY1 100215Z 09002KT 01/M07 A3014 RMK A01 T00101070  RH  055%=      5-min Rain = 0
KBY1 100216Z 07002KT 01/M07 A3014 RMK A01 T00111070  RH  055%=      5-min Rain = 0
KBY1 100217Z 05002KT 01/M07 A3014 RMK A01 T00111070  RH  055%=      5-min Rain = 0
KBY1 100218Z 05002KT 01/M07 A3014 RMK A01 T00111070  RH  055%=      5-min Rain = 0
KBY1 100219Z 05002KT 01/M07 A3014 RMK A01 T00121070  RH  054%=      5-min Rain = 0
KBY1 100220Z 06002KT 01/M07 A3014 RMK A01 T00131070  RH  054%=      5-min Rain = 0
KBY1 100221Z 07002KT 01/M07 A3014 RMK A01 T00131070  RH  054%=      5-min Rain = 0
KBY1 100222Z 07002KT 01/M07 A3014 RMK A01 T00131070  RH  054%=      5-min Rain = 0
KBY1 100223Z 07002KT 01/M07 A3014 RMK A01 T00131071  RH  054%=      5-min Rain = 0
KBY1 100224Z 06002KT 01/M07 A3014 RMK A01 T00131070  RH  054%=      5-min Rain = 0
KBY1 100225Z 06002KT 01/M07 A3014 RMK A01 T00131070  RH  054%=      5-min Rain = 0
KBY1 100226Z 06002KT 01/M07 A3014 RMK A01 T00121070  RH  054%=      5-min Rain = 0
KBY1 100227Z 06002KT 01/M07 A3014 RMK A01 T00121071  RH  054%=      5-min Rain = 0
KBY1 100228Z 06002KT 01/M07 A3014 RMK A01 T00111071  RH  054%=      5-min Rain = 0
KBY1 100229Z 06002KT 01/M07 A3014 RMK A01 T00111071  RH  055%=      5-min Rain = 0
KBY1 100230Z 06002KT 01/M07 A3014 RMK A01 T00101070  RH  055%=      5-min Rain = 0
KBY1 100231Z 05002KT 01/M07 A3014 RMK A01 T00091070  RH  056%=      5-min Rain = 0
KBY1 100232Z 06002KT 01/M07 A3014 RMK A01 T00091069  RH  056%=      5-min Rain = 0
KBY1 100233Z 05002KT 01/M07 A3014 RMK A01 T00091069  RH  056%=      5-min Rain = 0
KBY1 100234Z 05002KT 01/M07 A3014 RMK A01 T00091070  RH  056%=      5-min Rain = 0
KBY1 100235Z 05002KT 01/M07 A3014 RMK A01 T00091070  RH  056%=      5-min Rain = 0
KBY1 100236Z 04002KT 01/M07 A3014 RMK A01 T00091070  RH  056%=      5-min Rain = 0
KBY1 100237Z 04001KT 01/M07 A3014 RMK A01 T00091069  RH  056%=      5-min Rain = 0
KBY1 100238Z 05001KT 01/M07 A3014 RMK A01 T00081070  RH  056%=      5-min Rain = 0
KBY1 100239Z 05002KT 01/M07 A3015 RMK A01 T00071071  RH  056%=      5-min Rain = 0
KBY1 100240Z 06002KT 01/M07 A3015 RMK A01 T00071071  RH  056%=      5-min Rain = 0
KBY1 100241Z 05001KT 01/M07 A3015 RMK A01 T00071071  RH  056%=      5-min Rain = 0
KBY1 100242Z 06002KT 01/M07 A3015 RMK A01 T00071070  RH  056%=      5-min Rain = 0
KBY1 100243Z 06002KT 01/M07 A3015 RMK A01 T00061071  RH  056%=      5-min Rain = 0
KBY1 100244Z 05002KT 01/M07 A3015 RMK A01 T00061070  RH  057%=      5-min Rain = 0
KBY1 100245Z 06001KT 01/M07 A3015 RMK A01 T00051070  RH  057%=      5-min Rain = 0
KBY1 100246Z 06001KT 01/M07 A3015 RMK A01 T00051070  RH  057%=      5-min Rain = 0
KBY1 100247Z 06001KT 00/M07 A3015 RMK A01 T00041070  RH  057%=      5-min Rain = 0
KBY1 100248Z 07001KT 00/M07 A3015 RMK A01 T00041070  RH  058%=      5-min Rain = 0
KBY1 100249Z 09001KT 00/M07 A3015 RMK A01 T00031070  RH  058%=      5-min Rain = 0
KBY1 100250Z 10001KT 00/M07 A3015 RMK A01 T00021069  RH  059%=      5-min Rain = 0
KBY1 100251Z 11000KT 00/M07 A3015 RMK A01 T00011069  RH  059%=      5-min Rain = 0
KBY1 100252Z 09000KT M00/M07 A3015 RMK A01 T10011069  RH  060%=      5-min Rain = 0
KBY1 100253Z 00000KT M00/M07 A3015 RMK A01 T10021069  RH  060%=      5-min Rain = 0
KBY1 100254Z 00000KT M00/M07 A3015 RMK A01 T10021069  RH  061%=      5-min Rain = 0
KBY1 100255Z 00000KT M00/M07 A3015 RMK A01 T10031069  RH  061%=      5-min Rain = 0
KBY1 100256Z 00000KT M00/M07 A3015 RMK A01 T10031069  RH  061%=      5-min Rain = 0
KBY1 100257Z 00000KT M00/M07 A3015 RMK A01 T10031069  RH  061%=      5-min Rain = 0
KBY1 100258Z 00000KT M00/M07 A3015 RMK A01 T10031069  RH  061%=      5-min Rain = 0
KBY1 100259Z 11000KT M00/M07 A3015 RMK A01 T10031070  RH  061%=      5-min Rain = 0
KBY1 100300Z 10001KT M00/M07 A3015 RMK A01 T10021070  RH  061%=      5-min Rain = 0
KBY1 100301Z 09001KT M00/M07 A3015 RMK A01 T10031070  RH  061%=      5-min Rain = 0
KBY1 100302Z 10001KT M00/M07 A3015 RMK A01 T10031069  RH  061%=      5-min Rain = 0
KBY1 100303Z 11001KT M00/M07 A3015 RMK A01 T10031069  RH  061%=      5-min Rain = 0
KBY1 100304Z 12001KT M00/M07 A3015 RMK A01 T10031069  RH  061%=      5-min Rain = 0
KBY1 100305Z 12001KT M00/M07 A3015 RMK A01 T10041069  RH  061%=      5-min Rain = 0
KBY1 100306Z 12000KT M00/M07 A3015 RMK A01 T10041069  RH  061%=      5-min Rain = 0
KBY1 100307Z 11000KT M01/M07 A3016 RMK A01 T10051069  RH  062%=      5-min Rain = 0
KBY1 100308Z 00000KT M01/M07 A3016 RMK A01 T10051069  RH  062%=      5-min Rain = 0
KBY1 100309Z 00000KT M01/M07 A3016 RMK A01 T10051069  RH  062%=      5-min Rain = 0
KBY1 100310Z 00000KT M01/M07 A3016 RMK A01 T10061069  RH  063%=      5-min Rain = 0
KBY1 100311Z 08000KT M01/M07 A3016 RMK A01 T10061069  RH  063%=      5-min Rain = 0
KBY1 100312Z 00000KT M01/M07 A3016 RMK A01 T10071068  RH  063%=      5-min Rain = 0
KBY1 100313Z 00000KT M01/M07 A3015 RMK A01 T10081068  RH  063%=      5-min Rain = 0
KBY1 100314Z 00000KT M01/M07 A3015 RMK A01 T10091069  RH  064%=      5-min Rain = 0
KBY1 100315Z 00000KT M01/M07 A3015 RMK A01 T10091068  RH  064%=      5-min Rain = 0
KBY1 100316Z 00000KT M01/M07 A3015 RMK A01 T10091068  RH  064%=      5-min Rain = 0
KBY1 100317Z 00000KT M01/M07 A3015 RMK A01 T10091068  RH  064%=      5-min Rain = 0
KBY1 100318Z 00000KT M01/M07 A3015 RMK A01 T10091068  RH  064%=      5-min Rain = 0
KBY1 100319Z 00000KT M01/M07 A3015 RMK A01 T10091068  RH  064%=      5-min Rain = 0
KBY1 100320Z 00000KT M01/M07 A3015 RMK A01 T10091069  RH  064%=      5-min Rain = 0
KBY1 100321Z 00000KT M01/M07 A3015 RMK A01 T10091069  RH  064%=      5-min Rain = 0
KBY1 100322Z 01000KT M01/M07 A3015 RMK A01 T10091069  RH  064%=      5-min Rain = 0
KBY1 100323Z 02001KT M01/M07 A3015 RMK A01 T10091068  RH  064%=      5-min Rain = 0
KBY1 100324Z 03000KT M01/M07 A3015 RMK A01 T10101069  RH  064%=      5-min Rain = 0
KBY1 100325Z 00000KT M01/M07 A3015 RMK A01 T10121069  RH  065%=      5-min Rain = 0
KBY1 100326Z 00000KT M01/M07 A3015 RMK A01 T10131069  RH  065%=      5-min Rain = 0
KBY1 100327Z 00000KT M01/M07 A3015 RMK A01 T10131069  RH  066%=      5-min Rain = 0
KBY1 100328Z 00000KT M02/M07 A3015 RMK A01 T10151069  RH  067%=      5-min Rain = 0
KBY1 100329Z 00000KT M02/M07 A3015 RMK A01 T10171069  RH  067%=      5-min Rain = 0
KBY1 100330Z 00000KT M02/M07 A3015 RMK A01 T10181070  RH  068%=      5-min Rain = 0
KBY1 100331Z 00000KT M02/M07 A3015 RMK A01 T10181069  RH  068%=      5-min Rain = 0
KBY1 100332Z 00000KT M02/M07 A3015 RMK A01 T10181069  RH  068%=      5-min Rain = 0
KBY1 100333Z 00000KT M02/M07 A3015 RMK A01 T10171069  RH  068%=      5-min Rain = 0
KBY1 100334Z 00000KT M02/M07 A3015 RMK A01 T10171069  RH  068%=      5-min Rain = 0
KBY1 100335Z 00000KT M02/M07 A3015 RMK A01 T10161069  RH  067%=      5-min Rain = 0
KBY1 100336Z 00000KT M02/M07 A3016 RMK A01 T10161069  RH  067%=      5-min Rain = 0
KBY1 100337Z 00000KT M02/M07 A3016 RMK A01 T10161069  RH  067%=      5-min Rain = 0
KBY1 100338Z 00000KT M02/M07 A3016 RMK A01 T10161069  RH  067%=      5-min Rain = 0
KBY1 100339Z 00000KT M02/M07 A3016 RMK A01 T10161069  RH  067%=      5-min Rain = 0
KBY1 100340Z 00000KT M02/M07 A3016 RMK A01 T10161069  RH  067%=      5-min Rain = 0
KBY1 100341Z 00000KT M02/M07 A3016 RMK A01 T10161069  RH  067%=      5-min Rain = 0
KBY1 100342Z 00000KT M02/M07 A3016 RMK A01 T10161069  RH  067%=      5-min Rain = 0
KBY1 100343Z 00000KT M02/M07 A3016 RMK A01 T10161069  RH  067%=      5-min Rain = 0
KBY1 100344Z 00000KT M02/M07 A3016 RMK A01 T10161069  RH  067%=      5-min Rain = 0
KBY1 100345Z 00000KT M02/M07 A3016 RMK A01 T10151069  RH  067%=      5-min Rain = 0
KBY1 100346Z 00000KT M02/M07 A3016 RMK A01 T10151069  RH  067%=      5-min Rain = 0
KBY1 100347Z 00000KT M02/M07 A3016 RMK A01 T10151068  RH  067%=      5-min Rain = 0
KBY1 100348Z 00000KT M02/M07 A3016 RMK A01 T10151068  RH  067%=      5-min Rain = 0
KBY1 100349Z 00000KT M02/M07 A3016 RMK A01 T10161068  RH  067%=      5-min Rain = 0
KBY1 100350Z 00000KT M02/M07 A3016 RMK A01 T10161068  RH  068%=      5-min Rain = 0
KBY1 100351Z 02000KT M02/M07 A3016 RMK A01 T10161068  RH  068%=      5-min Rain = 0
KBY1 100352Z 02001KT M02/M07 A3016 RMK A01 T10171069  RH  068%=      5-min Rain = 0
KBY1 100353Z 02001KT M02/M07 A3016 RMK A01 T10191069  RH  068%=      5-min Rain = 0
KBY1 100354Z 03000KT M02/M07 A3016 RMK A01 T10201069  RH  069%=      5-min Rain = 0
KBY1 100355Z 02001KT M02/M07 A3016 RMK A01 T10191069  RH  069%=      5-min Rain = 0
KBY1 100356Z 01000KT M02/M07 A3016 RMK A01 T10191069  RH  069%=      5-min Rain = 0
KBY1 100357Z 01000KT M02/M07 A3016 RMK A01 T10181069  RH  068%=      5-min Rain = 0
KBY1 100358Z 01000KT M02/M07 A3016 RMK A01 T10171069  RH  068%=      5-min Rain = 0
KBY1 100359Z 02001KT M02/M07 A3016 RMK A01 T10171069  RH  068%=      5-min Rain = 0
KBY1 100400Z 02001KT M02/M07 A3016 RMK A01 T10201069  RH  069%=      5-min Rain = 0
KBY1 100401Z 02001KT M02/M07 A3016 RMK A01 T10231069  RH  071%=      5-min Rain = 0
KBY1 100402Z 03001KT M03/M07 A3016 RMK A01 T10251069  RH  072%=      5-min Rain = 0
KBY1 100403Z 03001KT M03/M07 A3016 RMK A01 T10261068  RH  073%=      5-min Rain = 0
KBY1 100404Z 03000KT M03/M07 A3016 RMK A01 T10261068  RH  073%=      5-min Rain = 0
KBY1 100405Z 03001KT M03/M07 A3016 RMK A01 T10251067  RH  072%=      5-min Rain = 0
KBY1 100406Z 03001KT M02/M07 A3016 RMK A01 T10241067  RH  072%=      5-min Rain = 0
KBY1 100407Z 02001KT M02/M07 A3016 RMK A01 T10241066  RH  073%=      5-min Rain = 0
KBY1 100408Z 03001KT M03/M07 A3016 RMK A01 T10261067  RH  073%=      5-min Rain = 0
KBY1 100409Z 03001KT M03/M07 A3016 RMK A01 T10261068  RH  073%=      5-min Rain = 0
KBY1 100410Z 05001KT M03/M07 A3016 RMK A01 T10261068  RH  073%=      5-min Rain = 0
KBY1 100411Z 04001KT M03/M07 A3016 RMK A01 T10251068  RH  073%=      5-min Rain = 0
KBY1 100412Z 04001KT M03/M07 A3016 RMK A01 T10261068  RH  073%=      5-min Rain = 0
KBY1 100413Z 03001KT M03/M07 A3016 RMK A01 T10261067  RH  073%=      5-min Rain = 0
KBY1 100414Z 02001KT M03/M07 A3016 RMK A01 T10261067  RH  073%=      5-min Rain = 0
KBY1 100415Z 01001KT M03/M07 A3016 RMK A01 T10261068  RH  073%=      5-min Rain = 0
KBY1 100416Z 01001KT M03/M07 A3016 RMK A01 T10251068  RH  072%=      5-min Rain = 0
KBY1 100417Z 02001KT M02/M07 A3016 RMK A01 T10241068  RH  072%=      5-min Rain = 0
KBY1 100418Z 02001KT M02/M07 A3016 RMK A01 T10241068  RH  072%=      5-min Rain = 0
KBY1 100419Z 02002KT M03/M07 A3016 RMK A01 T10251069  RH  072%=      5-min Rain = 0
KBY1 100420Z 02001KT M03/M07 A3016 RMK A01 T10261069  RH  072%=      5-min Rain = 0
KBY1 100421Z 02001KT M03/M07 A3016 RMK A01 T10261069  RH  073%=      5-min Rain = 0
KBY1 100422Z 02001KT M03/M07 A3016 RMK A01 T10261068  RH  072%=      5-min Rain = 0
KBY1 100423Z 02002KT M02/M07 A3016 RMK A01 T10241068  RH  072%=      5-min Rain = 0
KBY1 100424Z 01002KT M02/M07 A3016 RMK A01 T10241068  RH  072%=      5-min Rain = 0
KBY1 100425Z 01003KT M02/M07 A3016 RMK A01 T10241068  RH  072%=      5-min Rain = 0
KBY1 100426Z 01003KT M03/M07 A3016 RMK A01 T10251068  RH  072%=      5-min Rain = 0
KBY1 100427Z 01003KT M03/M07 A3016 RMK A01 T10251067  RH  073%=      5-min Rain = 0
KBY1 100428Z 01002KT M03/M07 A3016 RMK A01 T10261067  RH  073%=      5-min Rain = 0
KBY1 100429Z 02002KT M03/M07 A3016 RMK A01 T10261067  RH  074%=      5-min Rain = 0
KBY1 100430Z 02002KT M03/M07 A3016 RMK A01 T10271067  RH  074%=      5-min Rain = 0
KBY1 100431Z 01002KT M03/M07 A3016 RMK A01 T10271068  RH  073%=      5-min Rain = 0
KBY1 100432Z 01002KT M03/M07 A3016 RMK A01 T10261067  RH  073%=      5-min Rain = 0
KBY1 100433Z 00001KT M03/M07 A3016 RMK A01 T10261067  RH  073%=      5-min Rain = 0
KBY1 100434Z 36001KT M03/M07 A3016 RMK A01 T10281068  RH  074%=      5-min Rain = 0
KBY1 100435Z 01000KT M03/M07 A3016 RMK A01 T10291068  RH  074%=      5-min Rain = 0
KBY1 100436Z 01001KT M03/M07 A3016 RMK A01 T10301068  RH  075%=      5-min Rain = 0
KBY1 100437Z 02000KT M03/M07 A3016 RMK A01 T10301069  RH  075%=      5-min Rain = 0
KBY1 100438Z 00000KT M03/M07 A3016 RMK A01 T10331072  RH  074%=      5-min Rain = 0
KBY1 100439Z 00000KT M04/M07 A3016 RMK A01 T10361073  RH  075%=      5-min Rain = 0
KBY1 100440Z 00000KT M04/M07 A3016 RMK A01 T10371072  RH  077%=      5-min Rain = 0
KBY1 100441Z 00000KT M04/M07 A3016 RMK A01 T10381071  RH  078%=      5-min Rain = 0
KBY1 100442Z 00000KT M04/M07 A3016 RMK A01 T10381070  RH  078%=      5-min Rain = 0
KBY1 100443Z 00000KT M04/M07 A3017 RMK A01 T10381069  RH  079%=      5-min Rain = 0
KBY1 100444Z 00000KT M04/M07 A3017 RMK A01 T10371069  RH  079%=      5-min Rain = 0
KBY1 100445Z 00000KT M04/M07 A3017 RMK A01 T10371068  RH  079%=      5-min Rain = 0
KBY1 100446Z 00000KT M04/M07 A3016 RMK A01 T10381068  RH  079%=      5-min Rain = 0
KBY1 100447Z 00000KT M04/M07 A3016 RMK A01 T10381069  RH  079%=      5-min Rain = 0
KBY1 100448Z 00000KT M04/M07 A3017 RMK A01 T10391069  RH  080%=      5-min Rain = 0
KBY1 100449Z 00000KT M04/M07 A3017 RMK A01 T10411069  RH  080%=      5-min Rain = 0
KBY1 100450Z 00000KT M04/M07 A3017 RMK A01 T10411069  RH  081%=      5-min Rain = 0
KBY1 100451Z 00000KT M04/M07 A3017 RMK A01 T10421069  RH  082%=      5-min Rain = 0
KBY1 100452Z 00000KT M04/M07 A3017 RMK A01 T10431068  RH  082%=      5-min Rain = 0
KBY1 100453Z 00000KT M04/M07 A3017 RMK A01 T10431068  RH  083%=      5-min Rain = 0
KBY1 100454Z 00000KT M04/M07 A3017 RMK A01 T10431068  RH  083%=      5-min Rain = 0
KBY1 100455Z 00000KT M04/M07 A3017 RMK A01 T10421067  RH  083%=      5-min Rain = 0
KBY1 100456Z 00000KT M04/M07 A3017 RMK A01 T10431067  RH  083%=      5-min Rain = 0
KBY1 100457Z 00000KT M05/M07 A3017 RMK A01 T10451068  RH  083%=      5-min Rain = 0
KBY1 100458Z 00000KT M05/M07 A3017 RMK A01 T10481073  RH  083%=      5-min Rain = 0
KBY1 100459Z 00000KT M05/M07 A3017 RMK A01 T10501074  RH  083%=      5-min Rain = 0
KBY1 100500Z 00000KT M05/M07 A3017 RMK A01 T10511073  RH  084%=      5-min Rain = 0
KBY1 100501Z 00000KT M05/M07 A3017 RMK A01 T10511072  RH  085%=      5-min Rain = 0
KBY1 100502Z 00000KT M05/M07 A3017 RMK A01 T10511072  RH  085%=      5-min Rain = 0
KBY1 100503Z 00000KT M05/M07 A3017 RMK A01 T10521074  RH  085%=      5-min Rain = 0
KBY1 100504Z 22001KT M05/M08 A3017 RMK A01 T10541076  RH  085%=      5-min Rain = 0
KBY1 100505Z 22000KT M06/M08 A3017 RMK A01 T10551077  RH  085%=      5-min Rain = 0
KBY1 100506Z 22000KT M06/M08 A3017 RMK A01 T10551075  RH  086%=      5-min Rain = 0
KBY1 100507Z 00000KT M06/M07 A3017 RMK A01 T10551073  RH  087%=      5-min Rain = 0
KBY1 100508Z 22000KT M05/M07 A3017 RMK A01 T10541071  RH  088%=      5-min Rain = 0
KBY1 100509Z 22000KT M05/M07 A3017 RMK A01 T10541070  RH  088%=      5-min Rain = 0
KBY1 100510Z 00000KT M05/M07 A3017 RMK A01 T10531069  RH  088%=      5-min Rain = 0
KBY1 100511Z 00000KT M05/M07 A3017 RMK A01 T10531069  RH  089%=      5-min Rain = 0
KBY1 100512Z 00000KT M05/M07 A3017 RMK A01 T10541071  RH  089%=      5-min Rain = 0
KBY1 100513Z 00000KT M06/M07 A3017 RMK A01 T10551071  RH  088%=      5-min Rain = 0
KBY1 100514Z 00000KT M06/M07 A3017 RMK A01 T10561071  RH  089%=      5-min Rain = 0
KBY1 100515Z 00000KT M06/M07 A3017 RMK A01 T10561071  RH  089%=      5-min Rain = 0
KBY1 100516Z 00000KT M06/M07 A3017 RMK A01 T10561071  RH  089%=      5-min Rain = 0
KBY1 100517Z 00000KT M06/M07 A3017 RMK A01 T10561070  RH  090%=      5-min Rain = 0
KBY1 100518Z 00000KT M06/M07 A3017 RMK A01 T10551069  RH  090%=      5-min Rain = 0
KBY1 100519Z 00000KT M06/M07 A3017 RMK A01 T10551069  RH  090%=      5-min Rain = 0
KBY1 100520Z 00000KT M06/M07 A3017 RMK A01 T10551068  RH  091%=      5-min Rain = 0
KBY1 100521Z 00000KT M05/M07 A3017 RMK A01 T10541067  RH  091%=      5-min Rain = 0
KBY1 100522Z 00000KT M05/M07 A3017 RMK A01 T10541066  RH  091%=      5-min Rain = 0
KBY1 100523Z 00000KT M05/M07 A3017 RMK A01 T10531066  RH  091%=      5-min Rain = 0
KBY1 100524Z 00000KT M05/M07 A3017 RMK A01 T10531065  RH  091%=      5-min Rain = 0
KBY1 100525Z 00000KT M05/M07 A3017 RMK A01 T10531065  RH  091%=      5-min Rain = 0
KBY1 100526Z 00000KT M05/M07 A3017 RMK A01 T10521065  RH  091%=      5-min Rain = 0
KBY1 100527Z 00000KT M05/M06 A3018 RMK A01 T10521064  RH  091%=      5-min Rain = 0
KBY1 100528Z 00000KT M05/M06 A3018 RMK A01 T10511064  RH  091%=      5-min Rain = 0
KBY1 100529Z 00000KT M05/M06 A3018 RMK A01 T10511064  RH  091%=      5-min Rain = 0
KBY1 100530Z 00000KT M05/M06 A3018 RMK A01 T10511063  RH  091%=      5-min Rain = 0
KBY1 100531Z 00000KT M05/M06 A3018 RMK A01 T10501061  RH  092%=      5-min Rain = 0
KBY1 100532Z 00000KT M05/M06 A3018 RMK A01 T10481059  RH  092%=      5-min Rain = 0
KBY1 100533Z 00000KT M05/M06 A3018 RMK A01 T10481059  RH  092%=      5-min Rain = 0
KBY1 100534Z 00000KT M05/M06 A3018 RMK A01 T10471058  RH  092%=      5-min Rain = 0
KBY1 100535Z 00000KT M05/M06 A3018 RMK A01 T10461056  RH  093%=      5-min Rain = 0
KBY1 100536Z 00000KT M05/M06 A3018 RMK A01 T10461056  RH  093%=      5-min Rain = 0
KBY1 100537Z 00000KT M05/M06 A3018 RMK A01 T10461057  RH  092%=      5-min Rain = 0
KBY1 100538Z 00000KT M05/M06 A3018 RMK A01 T10461056  RH  092%=      5-min Rain = 0
KBY1 100539Z 00000KT M05/M06 A3018 RMK A01 T10451056  RH  092%=      5-min Rain = 0
KBY1 100540Z 00000KT M04/M06 A3018 RMK A01 T10441056  RH  091%=      5-min Rain = 0
KBY1 100541Z 00000KT M04/M06 A3018 RMK A01 T10431056  RH  091%=      5-min Rain = 0
KBY1 100542Z 00000KT M04/M05 A3018 RMK A01 T10411054  RH  091%=      5-min Rain = 0
KBY1 100543Z 00000KT M04/M05 A3018 RMK A01 T10401052  RH  091%=      5-min Rain = 0
KBY1 100544Z 00000KT M04/M05 A3018 RMK A01 T10391051  RH  091%=      5-min Rain = 0
KBY1 100545Z 00000KT M04/M05 A3018 RMK A01 T10381050  RH  091%=      5-min Rain = 0
KBY1 100546Z 00000KT M04/M05 A3018 RMK A01 T10381051  RH  091%=      5-min Rain = 0
KBY1 100547Z 00000KT M04/M05 A3018 RMK A01 T10381051  RH  091%=      5-min Rain = 0
KBY1 100548Z 00000KT M04/M05 A3018 RMK A01 T10381051  RH  090%=      5-min Rain = 0
KBY1 100549Z 00000KT M04/M05 A3018 RMK A01 T10381052  RH  090%=      5-min Rain = 0
KBY1 100550Z 00000KT M04/M05 A3018 RMK A01 T10381053  RH  090%=      5-min Rain = 0
KBY1 100551Z 00000KT M04/M05 A3018 RMK A01 T10381053  RH  089%=      5-min Rain = 0
KBY1 100552Z 00000KT M04/M05 A3018 RMK A01 T10381052  RH  090%=      5-min Rain = 0
KBY1 100553Z 00000KT M04/M05 A3018 RMK A01 T10371052  RH  090%=      5-min Rain = 0
KBY1 100554Z 00000KT M04/M05 A3018 RMK A01 T10361051  RH  089%=      5-min Rain = 0
KBY1 100555Z 00000KT M04/M05 A3018 RMK A01 T10361051  RH  089%=      5-min Rain = 0
KBY1 100556Z 00000KT M04/M05 A3018 RMK A01 T10351050  RH  089%=      5-min Rain = 0
KBY1 100557Z 00000KT M04/M05 A3018 RMK A01 T10351049  RH  090%=      5-min Rain = 0
KBY1 100558Z 00000KT M03/M05 A3018 RMK A01 T10341049  RH  090%=      5-min Rain = 0
KBY1 100559Z 00000KT M03/M05 A3018 RMK A01 T10341049  RH  090%=      5-min Rain = 0

Page generated in 0.1436 seconds.